GFSNGP_sfc_rhum_039.txt.gz
RH
55 50 54 67 71 73 99 96 99 79 80 61 52 45 50 51 44 38 35 44 54 56 51 51 51 48 41 39 37 33 31 29 29 27 26 27 26 25 24 24 24 24 25 26
92 62 61 87 66 74 96 96 98 95 94 58 43 41 44 43 40 36 47 59 57 55 53 55 46 42 38 34 30 30 30 33 31 30 28 30 28 27 29 31 27 26 28 34
85 61 62 88 89 91 89 80 88 94 60 44 48 51 64 70 71 64 61 67 60 56 54 44 39 36 33 30 33 34 36 34 31 31 32 30 28 30 33 30 29 30 28 27
98 73 92 56 46 53 70 81 82 67 60 58 64 67 76 73 74 66 65 64 56 52 46 39 36 32 32 36 39 36 34 32 31 32 30 28 29 29 28 28 30 28 28 27
92 75 56 46 47 54 70 90 84 91 80 70 64 71 88 84 76 71 61 53 48 42 38 37 36 38 36 36 37 38 36 37 33 27 26 26 29 28 28 30 29 28 27 28
78 94 71 42 40 47 69 74 79 89 80 78 73 81 95 95 78 57 51 50 48 42 39 44 52 43 50 54 51 49 36 26 24 24 25 27 31 33 30 28 28 27 29 27
96 95 62 38 42 46 59 58 54 84 86 76 73 70 73 89 85 71 63 69 63 62 62 63 59 53 44 36 30 26 25 24 24 26 29 31 32 31 31 29 29 28 30 26
98 99 87 43 43 56 52 49 48 66 82 76 70 74 74 69 76 64 47 40 35 34 32 29 27 28 30 31 28 26 27 28 30 30 29 36 45 42 36 32 31 29 28 28
75 61 39 39 47 44 51 54 55 59 87 87 88 74 75 82 73 65 50 44 40 38 37 34 33 34 34 30 28 30 32 32 32 34 36 40 44 45 37 31 29 28 29 32
57 46 42 40 41 50 53 57 57 59 58 64 66 63 59 56 56 51 46 40 35 33 33 34 31 31 31 32 32 31 32 32 33 34 33 33 34 38 36 30 29 31 32 36
52 44 41 47 52 53 56 53 53 52 53 56 58 59 56 52 49 44 41 38 35 34 35 34 32 31 31 31 29 31 32 35 36 35 33 34 33 33 31 32 42 44 43 44
45 46 47 49 52 56 56 56 54 55 57 54 54 55 51 49 44 42 40 38 38 37 36 32 31 31 31 30 32 32 33 33 34 34 34 33 31 29 50 46 46 52 52 52
41 46 49 52 55 54 56 54 52 53 52 53 48 47 46 45 42 45 38 37 37 37 35 32 31 32 30 29 32 33 34 36 38 35 32 32 31 30 31 33 36 36 38 46
44 48 54 55 57 55 53 52 50 47 45 45 44 43 44 44 40 38 38 36 34 33 34 31 32 33 31 32 36 39 43 44 35 35 37 36 31 31 31 33 33 34 37 43
46 46 48 51 55 56 52 53 59 56 48 47 44 43 40 40 40 37 34 32 32 32 33 35 38 39 36 38 43 43 42 38 35 37 40 36 32 33 34 34 36 38 40 41
55 58 59 62 65 60 58 55 52 50 47 44 43 41 39 37 37 36 35 34 36 40 38 41 41 40 42 45 45 47 49 50 39 33 31 31 33 36 37 39 41 43 44 44
76 92 98 99 82 63 55 50 49 47 43 41 42 41 40 40 40 39 38 37 37 40 42 46 47 45 46 40 40 35 37 40 40 32 33 36 40 41 41 44 47 47 46 43
58 61 66 67 62 58 56 50 46 43 42 41 41 40 41 41 42 41 40 40 42 44 47 47 48 48 42 39 37 36 35 34 35 36 36 40 46 45 46 47 49 49 48 47
56 58 62 58 55 55 54 50 45 41 41 41 40 41 41 42 42 42 40 42 44 49 54 58 59 48 44 45 38 37 34 34 33 35 39 47 43 44 48 49 52 51 52 51
65 61 60 58 57 56 52 45 42 41 40 39 41 43 44 44 42 41 39 42 43 55 62 65 53 47 43 45 39 38 37 36 37 38 42 49 46 51 50 53 54 54 57 56
70 66 64 64 60 52 47 42 41 41 40 42 43 45 46 44 42 48 53 56 54 54 57 56 45 42 42 41 38 39 39 39 40 44 47 48 51 53 55 59 62 62 63 63
65 66 64 59 55 51 46 42 41 42 42 42 44 45 46 52 54 54 47 51 56 62 56 51 46 46 48 42 40 41 43 43 45 46 50 53 61 70 76 75 78 75 75 76
64 63 60 56 53 49 46 44 44 43 46 48 48 48 49 53 52 55 62 58 60 60 56 53 62 59 50 39 42 43 44 47 49 53 60 69 75 81 82 82 80 80 83 82
63 60 57 54 51 50 54 51 47 47 47 46 48 48 50 53 55 54 56 59 64 65 61 63 61 56 42 41 45 46 48 50 61 73 68 68 80 82 81 80 83 81 81 81
77 75 72 70 61 57 64 65 64 58 51 52 52 50 49 48 53 58 58 62 67 61 62 64 59 52 43 44 47 48 52 63 76 72 67 79 82 85 84 82 83 82 83 84
70 64 62 59 58 61 60 55 56 54 53 55 56 55 56 57 56 59 61 63 56 52 45 45 46 44 46 47 50 49 52 58 60 65 74 79 83 85 84 82 82 82 82 86
73 65 63 62 58 56 54 54 54 55 52 52 58 58 61 59 57 52 52 45 40 36 36 38 39 46 46 48 49 51 59 63 70 75 78 82 84 86 84 84 85 85 86 86

GFSNGP_sfc_rhum_042.txt.gz
RH
69 59 61 70 72 69 100 96 99 85 88 77 78 72 62 48 55 56 52 47 59 71 72 62 68 57 49 47 43 39 40 39 37 33 30 30 31 30 34 32 30 31 34 34
92 66 70 82 71 72 74 77 92 96 95 64 55 50 65 82 69 68 63 69 67 67 71 62 50 47 47 46 45 37 34 36 32 30 30 31 31 32 35 34 33 33 37 46
86 74 79 90 77 76 87 84 84 99 77 60 63 66 82 89 86 83 75 75 69 64 49 44 42 40 38 37 36 36 36 36 36 38 39 40 41 44 48 36 38 36 36 33
95 91 97 69 64 61 67 64 84 83 76 79 76 89 91 90 92 86 70 65 60 53 44 40 37 35 34 36 37 37 40 37 35 36 37 36 38 36 37 35 37 35 34 32
97 89 64 54 58 64 70 81 78 86 80 81 73 93 91 86 65 62 59 54 48 41 39 35 36 38 38 38 38 42 41 45 43 37 37 40 44 37 38 37 38 35 33 34
97 98 88 56 56 59 76 93 76 88 86 89 75 93 97 90 62 56 46 41 42 39 41 42 41 42 50 53 58 67 65 70 71 75 77 55 40 39 38 36 33 34 34 36
97 96 77 51 54 60 84 85 74 84 88 79 92 93 96 85 86 78 68 58 58 66 79 78 79 78 81 80 87 81 81 79 60 42 39 36 39 39 37 35 36 38 37 37
87 95 94 55 56 76 72 69 66 84 89 85 84 77 87 85 84 92 91 90 86 87 91 92 91 86 92 96 88 64 40 37 37 37 36 44 52 49 42 42 42 39 38 41
81 78 56 52 62 64 65 71 75 80 93 88 88 88 81 79 70 49 42 42 46 54 54 43 38 33 33 33 34 35 36 40 41 43 46 53 58 55 47 41 40 41 43 50
74 60 56 59 59 62 65 67 67 70 88 77 84 79 78 77 79 75 70 62 52 48 44 40 33 33 34 35 34 35 38 41 44 46 45 44 46 51 46 46 48 49 54 60
68 59 60 64 66 65 62 59 61 62 69 70 69 68 61 57 53 48 46 42 38 38 38 37 35 35 33 34 34 40 44 47 47 46 47 48 47 49 48 63 58 66 71 68
66 60 62 68 67 63 62 63 62 66 67 65 62 61 56 54 48 45 43 41 40 38 37 35 34 36 37 38 40 42 47 51 52 53 51 48 45 47 47 42 42 46 46 52
60 62 65 65 64 62 64 63 61 63 63 63 57 52 50 49 46 47 41 39 40 39 37 35 35 37 42 44 47 48 54 54 54 50 50 48 46 43 45 46 39 37 36 42
60 61 72 67 73 61 61 58 56 54 53 51 51 48 46 48 44 42 42 38 37 38 39 38 41 45 46 50 57 60 59 52 54 57 55 50 44 45 47 48 48 50 46 46
62 61 65 64 63 62 58 62 67 63 56 52 51 48 44 44 43 41 38 34 36 41 45 47 50 54 53 56 58 57 54 54 56 56 55 46 45 48 49 49 52 56 57 52
74 71 71 74 73 68 69 63 57 56 53 49 48 45 43 42 42 42 42 41 45 54 56 57 61 61 61 64 66 66 62 47 45 45 44 46 50 53 53 55 58 62 63 59
87 95 93 93 82 70 61 54 52 51 48 45 44 44 44 45 47 49 49 49 52 58 63 62 64 60 55 49 52 57 58 54 40 46 48 50 56 59 58 61 63 63 63 52
79 80 84 78 66 64 60 54 50 46 45 44 44 44 46 48 51 52 54 54 58 62 64 64 62 57 53 51 50 52 52 50 48 50 49 55 62 59 59 61 62 64 61 56
70 73 73 68 61 57 54 51 48 45 45 45 44 47 47 48 50 52 53 57 62 69 77 68 57 60 59 48 51 52 50 47 46 48 52 57 59 60 63 63 65 66 66 60
73 71 69 67 64 58 54 48 45 46 45 45 47 48 51 52 51 51 54 61 67 74 77 65 60 59 57 51 48 54 51 50 50 54 58 63 62 65 65 61 64 66 70 66
77 74 72 69 64 56 49 44 45 46 46 46 48 51 53 53 56 59 64 72 77 73 68 58 58 58 58 52 53 55 54 55 55 63 63 65 66 71 76 79 78 74 74 73
78 76 71 65 59 55 48 45 45 47 48 49 50 51 54 63 66 65 62 65 72 67 66 62 59 56 57 48 56 56 57 56 60 64 70 74 80 89 96 96 95 91 89 94
78 76 71 66 60 55 51 49 49 48 51 52 51 53 56 59 58 62 72 74 76 65 70 73 63 54 46 57 58 58 58 60 64 73 93 95 96 97 97 96 96 96 96 94
76 74 72 66 61 56 61 64 60 58 55 53 54 56 56 64 77 74 69 69 67 69 78 74 63 49 46 58 61 63 64 67 92 96 96 76 97 97 97 96 96 96 95 92
92 89 89 83 75 73 78 74 68 63 57 58 58 59 60 64 72 74 74 74 69 78 81 65 58 49 56 59 63 64 75 92 93 96 95 96 97 97 97 96 96 94 93 94
85 82 83 78 76 73 65 58 59 60 58 61 62 66 69 66 66 73 76 73 73 72 77 69 59 55 58 59 66 64 71 88 88 93 91 97 96 97 96 96 95 93 92 93
92 80 89 77 72 63 61 60 59 61 58 59 67 68 69 71 72 73 67 60 50 48 50 54 55 53 58 60 61 64 89 93 80 94 97 97 97 97 96 96 95 93 93 92

GFSNGP_sfc_rhum_045.txt.gz
RH
80 74 74 79 80 78 86 80 98 68 72 65 63 72 70 74 72 81 74 71 59 73 75 80 71 62 53 49 50 50 51 46 47 43 43 37 34 36 37 41 47 53 58 57
94 72 75 87 77 77 78 78 90 88 93 63 62 65 65 86 84 77 77 77 74 72 74 65 53 48 42 52 49 44 49 44 42 39 36 37 37 37 38 40 39 43 50 54
95 76 85 94 82 76 75 82 87 97 76 71 76 78 93 93 86 87 83 74 78 59 55 50 42 42 48 38 39 40 38 35 35 36 42 49 51 51 61 67 70 76 76 56
98 90 96 70 60 64 72 76 79 78 75 75 80 92 90 74 70 66 79 65 50 45 43 38 38 38 37 38 38 40 42 42 44 50 56 55 58 64 66 62 58 54 41 35
100 97 71 65 67 67 75 77 84 87 79 79 75 93 95 70 55 52 46 43 40 38 40 41 40 39 41 41 46 55 55 64 68 66 71 73 78 84 89 88 64 38 35 36
99 100 93 72 59 64 72 89 78 88 86 85 78 93 97 84 63 49 44 43 45 43 43 43 48 52 58 64 69 69 72 80 74 75 80 84 78 58 46 39 36 37 36 36
97 97 84 60 54 73 86 77 79 85 90 82 93 95 93 82 81 69 66 70 62 71 72 70 70 70 82 87 93 90 88 92 91 88 90 84 67 46 40 40 38 38 39 40
98 98 92 55 65 79 72 79 76 88 86 85 88 86 83 85 90 88 82 81 80 86 96 96 92 86 93 97 95 96 92 90 84 70 51 48 52 49 43 42 42 42 41 47
78 76 56 67 72 73 72 74 83 84 86 85 85 81 69 73 64 82 89 95 93 97 99 99 97 90 95 98 92 72 52 48 48 46 48 56 58 56 48 42 44 47 50 59
85 68 70 68 74 72 70 74 72 85 88 86 90 81 74 67 63 58 61 54 52 49 52 45 35 35 42 41 41 41 42 44 48 50 50 50 50 52 52 53 55 60 64 70
76 65 71 75 78 72 67 65 67 74 82 87 82 85 80 74 66 60 54 44 41 39 40 40 36 36 36 37 37 40 46 51 52 52 53 54 52 55 65 66 59 68 75 69
78 61 67 74 76 67 67 70 67 70 74 73 65 63 59 56 52 44 44 41 41 40 39 37 37 39 39 40 41 45 50 55 57 56 54 51 50 48 48 47 45 45 42 48
62 67 70 72 70 66 67 70 67 69 66 67 59 54 50 49 46 48 40 40 40 41 41 39 39 41 44 46 51 53 60 57 59 54 52 50 50 50 52 50 45 46 46 47
63 66 76 74 75 65 65 66 62 59 57 55 53 50 47 48 46 43 42 40 40 41 42 42 46 53 55 55 59 61 62 57 60 59 55 52 51 52 53 51 54 56 52 52
75 72 69 70 68 68 67 64 65 61 56 58 54 50 46 46 46 44 39 37 39 43 47 49 54 61 59 58 54 55 55 58 58 56 55 51 52 53 54 55 59 62 63 56
80 76 75 75 73 73 75 71 64 58 55 53 50 48 46 45 46 46 43 43 47 58 60 62 66 68 66 64 64 62 58 49 50 48 50 53 58 58 58 62 64 67 68 64
84 91 94 91 82 76 74 60 54 54 50 47 48 46 46 48 51 55 57 57 58 64 67 64 65 58 59 60 60 59 56 55 50 50 51 59 64 62 61 65 68 68 68 58
86 79 81 80 69 69 66 54 52 47 46 44 45 46 49 48 54 59 61 61 63 67 67 63 58 55 53 52 53 55 54 52 50 55 54 62 63 60 65 66 67 70 68 61
80 71 84 76 66 62 57 53 49 46 46 46 46 49 50 54 57 59 59 59 62 67 73 66 58 57 56 53 54 55 52 50 50 55 58 60 63 66 68 68 71 73 74 68
75 72 76 81 82 74 55 48 45 46 45 45 50 51 55 58 58 59 59 64 70 75 70 62 58 58 56 54 54 55 53 54 56 61 65 66 67 70 73 72 75 76 79 74
79 76 77 80 78 57 49 45 46 47 47 48 49 51 55 57 58 64 70 76 86 70 64 58 59 60 59 57 57 58 58 58 60 68 68 71 76 82 87 88 85 80 80 80
80 77 72 68 62 55 50 48 47 48 49 50 50 54 56 64 68 72 69 72 80 65 64 62 60 57 57 54 58 60 60 60 64 69 78 82 82 89 97 98 97 93 93 95
79 77 72 65 60 56 53 51 50 49 53 54 52 53 54 56 60 66 77 78 78 65 65 68 61 53 53 61 61 61 61 64 68 80 96 97 97 98 98 98 98 97 97 96
83 77 74 68 62 58 63 64 63 62 60 54 55 54 57 61 72 72 73 73 70 66 72 71 61 52 55 62 63 66 67 72 94 96 97 76 97 98 98 98 98 97 96 96
92 91 91 84 75 73 80 80 77 68 59 63 63 60 57 59 64 78 74 74 70 76 79 61 56 52 58 61 64 67 78 94 94 97 96 97 98 98 98 98 97 97 97 97
92 86 82 78 77 75 70 64 63 61 61 64 66 67 74 71 71 78 80 80 80 75 78 69 59 57 57 59 66 66 73 92 91 95 92 97 97 97 97 97 97 97 95 96
95 83 94 80 78 73 65 62 62 63 59 60 68 72 72 74 77 78 79 78 77 69 61 60 60 54 56 59 61 65 92 95 84 95 98 98 97 97 97 96 96 96 95 94

GFSNGP_sfc_rhum_051.txt.gz
RH
84 76 82 82 80 86 88 79 91 77 77 56 49 49 56 79 75 69 66 62 64 88 92 83 74 80 87 90 86 72 68 64 65 52 48 44 43 45 47 50 54 58 63 66
95 76 87 94 82 82 82 78 80 72 73 49 48 59 79 80 70 68 65 59 69 60 63 67 70 66 68 74 73 68 63 60 52 50 53 58 60 64 65 69 68 69 74 79
91 81 89 92 85 79 79 79 67 81 63 62 72 79 87 80 66 63 56 49 46 48 55 63 70 74 71 63 69 72 73 62 65 73 69 71 72 77 82 85 87 90 91 92
98 86 97 64 68 67 68 62 68 65 58 65 77 85 81 71 56 54 53 45 45 48 49 54 60 73 79 83 86 86 80 85 87 80 81 82 85 88 90 90 94 96 100 100
94 91 78 72 74 76 80 78 76 80 78 69 78 89 94 77 50 51 54 55 52 47 46 46 49 54 64 72 80 83 90 92 85 84 84 88 94 99 100 100 100 100 99 97
99 96 92 64 64 76 73 86 78 82 79 85 81 96 96 79 67 61 62 56 62 61 61 61 58 58 65 74 83 89 91 92 89 89 95 98 100 100 100 100 98 84 65 62
91 98 85 60 61 78 85 76 80 84 83 82 87 89 88 76 76 75 75 78 82 87 90 86 80 84 95 96 97 99 97 98 96 98 98 100 99 96 94 88 52 44 44 52
88 97 93 59 82 84 70 81 80 84 88 86 88 84 84 85 80 84 87 85 85 96 98 92 88 92 98 98 100 98 99 98 99 98 96 95 92 70 50 45 48 52 58 62
84 79 57 59 67 69 74 77 81 86 89 84 87 81 82 88 85 85 89 93 92 98 100 100 93 96 97 99 98 97 96 98 97 82 64 57 55 55 54 54 56 57 58 62
82 70 67 61 67 71 69 70 74 76 89 86 83 73 72 75 86 86 87 91 87 89 91 93 91 92 96 95 85 72 62 61 60 60 56 56 55 52 50 53 58 60 60 68
83 71 70 76 77 71 70 69 71 90 90 88 79 72 68 65 67 73 68 75 58 52 59 68 68 67 63 57 53 57 60 60 58 53 55 61 62 62 62 62 56 66 70 65
80 65 72 72 78 76 74 72 72 91 93 90 73 68 66 64 59 56 50 48 49 47 48 45 48 51 52 52 54 55 54 55 56 56 61 62 68 72 54 54 51 50 51 57
76 74 70 74 80 78 74 73 76 86 90 92 88 78 69 65 52 50 45 46 47 49 50 51 52 54 55 55 54 56 61 58 59 50 48 49 52 50 48 52 52 56 57 54
75 81 80 80 76 72 72 76 73 78 77 75 71 68 61 62 66 47 47 46 46 47 48 53 55 58 58 56 56 59 64 53 52 53 53 55 55 54 56 58 63 63 58 57
78 83 80 79 76 77 75 72 75 74 68 64 60 55 63 74 66 48 45 43 44 48 49 52 59 63 60 60 60 62 54 54 56 57 57 56 57 58 61 64 67 70 70 60
85 85 79 77 78 76 74 76 74 71 67 64 62 63 62 58 48 46 46 47 47 54 56 56 62 62 59 58 56 52 55 52 54 57 60 61 60 61 65 69 71 74 76 72
98 94 96 92 85 78 75 71 68 66 59 55 57 57 52 50 50 51 51 51 55 57 58 59 65 61 60 55 54 63 64 58 50 56 63 66 64 64 68 71 73 76 77 68
94 93 91 90 87 72 70 66 60 57 52 48 50 49 53 53 53 55 58 60 61 64 62 65 65 62 56 56 56 60 60 58 55 62 68 68 64 67 70 71 75 80 81 74
78 87 91 90 89 74 66 63 57 51 54 56 54 51 52 56 56 56 57 56 60 65 64 63 62 57 53 52 53 55 54 56 57 63 70 61 68 72 74 81 85 86 87 80
84 82 80 77 70 69 63 55 48 50 51 54 52 53 58 64 63 61 57 59 57 59 61 63 61 55 55 58 53 56 55 57 60 66 71 69 74 77 85 79 82 83 86 81
88 84 85 90 94 84 70 66 62 50 48 52 52 54 59 65 62 60 63 61 66 65 66 65 59 64 66 63 59 59 60 60 62 68 68 73 78 84 88 90 89 85 85 85
84 80 78 77 80 75 80 75 73 57 49 55 55 57 60 66 66 66 60 55 71 66 68 65 65 62 67 58 60 60 62 62 64 71 81 86 86 90 97 98 98 94 94 97
85 83 77 77 70 64 73 69 61 53 56 66 59 58 56 57 58 59 63 71 72 67 65 61 59 59 58 64 60 61 62 65 68 75 95 97 97 98 98 98 98 97 98 97
88 87 88 80 73 60 63 62 66 69 63 55 56 55 55 60 65 64 66 72 70 69 62 57 56 58 60 61 63 64 65 68 91 97 97 80 98 97 98 97 97 96 97 96
95 96 96 93 84 77 80 86 81 76 64 63 60 60 59 58 55 66 77 73 70 70 64 57 59 62 68 62 63 62 72 92 95 95 96 97 97 97 97 97 97 96 97 97
96 93 97 95 92 85 78 73 71 70 66 67 67 66 68 67 69 72 74 75 72 71 66 73 71 71 58 59 60 61 67 79 82 91 91 96 97 98 97 96 96 96 95 96
95 78 88 95 94 87 81 76 75 72 68 65 61 66 68 70 75 76 76 74 76 72 69 70 70 63 55 58 63 59 70 80 80 90 92 94 97 97 96 96 96 96 96 95

GFSNGP_sfc_rhum_054.txt.gz
RH
85 74 81 83 80 88 86 83 88 76 81 58 52 55 54 77 73 72 69 53 57 57 74 75 78 83 83 85 83 76 65 61 60 57 59 54 54 53 54 58 59 60 64 66
95 79 88 95 85 84 86 82 82 72 75 49 47 52 76 84 71 64 63 49 47 49 61 63 79 75 67 73 75 67 68 63 61 64 69 68 70 68 68 70 70 73 80 82
91 82 86 91 86 81 84 81 69 86 62 52 62 73 86 82 69 61 56 47 52 56 58 63 74 75 78 74 68 72 72 74 74 74 78 78 76 82 84 87 86 91 93 93
97 87 97 62 67 68 69 62 68 64 57 53 69 84 80 75 61 54 55 57 52 52 50 54 66 74 78 83 85 88 87 86 87 86 88 87 89 92 91 91 94 96 99 100
91 81 80 74 83 77 77 77 72 66 66 68 79 90 92 74 52 54 61 54 55 55 53 58 60 65 70 74 78 87 97 98 93 93 93 93 98 100 100 100 100 100 100 100
98 86 96 64 69 72 74 85 78 81 80 74 81 97 94 77 68 67 66 63 67 67 69 71 75 77 82 92 96 96 97 94 92 90 97 98 100 100 100 100 99 96 97 97
93 89 86 64 58 76 91 79 80 81 79 82 86 87 87 79 78 81 79 84 82 85 88 86 85 88 95 97 99 99 97 98 97 97 99 100 100 100 98 92 74 54 53 55
93 96 95 62 76 81 68 80 81 81 82 84 88 84 85 87 87 89 93 90 88 96 96 92 91 95 99 99 100 99 98 98 99 99 99 99 91 72 47 46 53 59 60 62
82 77 58 58 70 64 74 75 80 83 87 87 86 86 85 95 93 89 86 90 86 98 99 100 97 96 97 100 99 99 98 99 95 64 54 52 54 57 56 58 62 61 59 64
87 68 66 62 63 68 71 72 74 74 87 89 84 78 80 85 94 94 87 86 87 91 95 97 96 97 97 93 87 74 65 64 60 57 57 56 48 47 51 56 62 59 59 68
86 72 67 74 72 77 73 70 72 84 89 90 84 74 74 79 92 90 94 90 65 75 85 90 86 85 71 55 59 62 65 60 56 58 62 67 66 68 66 63 60 65 68 66
84 74 75 74 76 78 77 74 71 82 94 91 78 71 68 70 71 66 68 58 57 62 60 58 57 57 58 58 58 58 55 54 61 65 69 73 77 76 57 57 54 56 57 60
90 88 83 78 79 79 79 76 78 85 90 93 84 65 65 67 64 59 51 56 60 58 55 55 56 56 58 58 57 55 61 56 58 48 48 51 53 51 50 53 54 57 58 55
76 85 84 83 83 77 77 80 76 83 88 92 90 78 71 66 74 59 51 51 50 51 58 56 57 58 60 58 57 60 62 52 50 53 56 58 57 57 59 60 64 65 60 58
79 82 89 86 81 81 82 77 82 80 78 77 78 75 65 70 74 68 48 45 46 48 51 57 58 60 60 59 60 64 53 54 56 58 61 58 58 60 64 66 68 72 72 62
85 91 86 87 83 80 80 79 78 77 72 70 70 71 67 71 73 52 47 48 48 53 53 59 59 61 62 61 57 52 53 54 58 62 60 61 60 62 66 71 72 75 78 75
96 97 95 95 91 81 80 75 73 72 69 66 68 70 65 59 55 56 51 49 50 55 55 59 60 59 59 55 50 61 65 60 53 59 63 65 64 65 70 72 74 78 80 72
87 90 94 96 96 90 81 68 66 64 62 54 57 57 56 56 57 56 56 58 58 59 60 60 60 60 55 56 58 63 61 62 54 63 68 68 64 68 71 72 77 82 83 77
80 85 85 93 92 93 87 71 64 57 54 53 52 53 53 58 60 57 58 57 57 61 63 63 63 57 55 56 58 58 55 54 56 66 70 63 70 73 74 80 86 89 88 80
87 83 83 84 82 72 74 65 57 55 56 54 55 63 69 66 61 59 56 55 54 55 61 65 62 54 52 60 53 55 54 56 58 65 71 68 70 77 81 78 81 84 86 80
84 83 85 89 91 93 71 59 56 58 56 59 65 66 62 62 63 64 64 62 62 63 60 67 57 57 60 66 60 56 57 58 61 67 69 74 73 83 85 88 88 85 83 84
83 85 82 75 79 89 84 87 81 77 59 54 58 62 64 69 67 67 58 54 64 65 66 67 61 60 65 62 59 58 60 60 62 69 75 80 83 88 96 97 96 93 92 97
86 84 85 82 78 69 73 88 86 77 64 58 58 60 59 60 59 61 62 63 63 68 68 63 61 60 59 70 59 59 60 63 65 70 90 96 96 98 97 97 97 96 97 96
86 89 91 88 81 71 73 69 69 78 79 78 80 75 63 62 63 61 63 67 67 71 66 61 60 61 60 64 60 62 64 64 84 96 96 77 97 98 97 96 97 96 96 95
96 97 97 97 94 90 89 85 78 77 68 67 64 61 58 58 56 61 75 73 69 74 65 61 61 60 70 60 59 60 68 88 92 94 94 96 96 97 97 97 97 96 96 96
96 96 95 92 97 96 90 80 78 75 71 69 69 68 65 63 64 69 71 74 71 74 62 59 60 65 66 56 56 59 65 74 76 87 89 95 96 97 97 97 96 95 93 95
97 80 96 93 94 96 94 95 89 79 70 71 69 70 69 68 71 75 72 79 77 75 63 68 73 72 63 54 58 57 68 74 73 89 94 95 96 96 96 96 95 95 95 94

GFSNGP_sfc_rhum_057.txt.gz
RH
79 72 78 79 82 80 85 80 86 64 73 52 51 54 51 76 69 65 61 51 50 53 62 66 67 66 67 68 63 63 61 63 65 66 69 68 70 72 70 73 74 70 70 73
91 78 85 94 82 84 80 77 77 70 72 47 46 45 67 78 72 64 59 48 49 52 60 68 74 71 72 70 72 65 71 72 70 72 74 79 85 80 79 79 79 79 82 84
90 82 82 94 84 81 82 80 70 88 63 51 59 61 82 80 70 59 55 53 51 53 56 68 75 76 83 80 76 79 82 82 77 78 80 80 81 85 89 91 89 92 94 93
93 85 94 57 67 68 70 65 71 67 61 53 56 80 78 74 61 54 55 59 51 50 51 56 68 73 75 79 82 90 95 94 95 92 92 91 93 94 95 93 95 96 99 100
92 78 72 76 79 74 74 77 65 64 58 56 74 88 92 68 54 55 54 54 57 57 58 61 62 68 75 84 94 95 98 99 98 99 98 99 100 100 100 100 100 100 100 100
96 88 90 60 66 70 70 82 69 71 71 70 82 88 90 76 64 66 65 67 69 69 70 76 76 76 84 94 94 95 94 97 96 97 99 98 100 100 100 100 99 98 98 96
96 93 74 61 53 68 92 76 73 78 76 72 88 88 85 80 82 82 84 85 79 83 84 84 84 86 96 98 99 99 99 100 99 100 100 100 100 99 96 79 69 69 64 56
88 88 88 61 80 81 69 72 76 76 77 78 84 81 80 80 87 88 90 86 86 88 91 91 91 96 99 99 100 100 98 98 99 98 96 86 67 51 44 45 47 48 46 48
75 73 55 61 67 61 66 68 72 76 76 83 85 84 85 87 90 83 84 83 84 96 99 99 96 91 99 100 99 97 93 79 55 48 45 45 45 47 46 46 47 44 43 52
84 72 67 59 61 62 69 72 68 72 78 88 85 81 83 84 91 89 85 84 82 82 96 96 96 96 96 96 82 61 53 50 48 45 43 40 38 40 42 45 44 43 48 56
85 75 70 65 70 67 71 70 68 72 81 86 87 80 80 82 88 86 85 84 83 88 91 96 96 91 68 60 56 53 53 49 49 48 52 55 53 49 44 46 46 50 55 54
86 76 82 72 69 69 72 73 69 72 90 91 84 78 76 81 84 87 91 63 74 80 82 79 75 64 58 56 54 49 45 47 54 57 63 63 63 64 59 58 58 59 60 56
85 91 88 82 85 79 77 75 74 75 84 92 85 74 69 72 73 76 66 63 71 70 67 63 62 56 55 57 53 49 51 50 49 45 47 53 45 43 45 51 56 58 58 55
78 79 88 86 88 86 81 77 76 82 86 92 87 74 66 68 69 63 62 61 65 63 62 58 54 54 55 56 51 53 52 52 39 41 44 45 44 45 46 46 48 50 56 54
89 87 84 80 89 83 80 78 80 79 80 86 91 78 71 71 76 66 58 53 52 57 55 56 55 56 58 55 52 57 50 45 44 47 49 49 49 51 52 54 56 58 57 54
92 93 89 91 88 85 77 75 79 80 77 78 83 81 72 69 72 69 59 50 53 58 54 54 54 57 58 57 56 49 44 49 53 57 53 50 50 52 55 57 58 60 61 60
96 95 96 97 95 91 87 74 73 76 74 71 73 76 80 75 74 65 53 49 49 55 55 54 55 57 58 53 48 52 59 56 57 51 52 52 52 54 57 59 60 62 64 63
90 90 87 87 94 97 94 85 74 68 67 62 63 70 70 67 69 64 64 64 56 57 58 54 56 57 53 49 50 58 56 57 51 54 59 58 54 57 59 60 63 67 68 68
89 88 86 86 86 93 95 91 80 66 62 58 58 60 60 62 70 78 74 64 63 58 59 58 63 57 52 52 56 56 54 49 50 58 58 60 64 60 62 64 70 73 74 69
99 88 83 86 86 87 72 68 68 60 57 57 55 57 59 68 73 79 79 74 55 53 60 59 62 52 52 58 58 52 49 49 50 55 61 58 57 60 66 68 69 72 73 69
86 84 81 80 86 90 87 67 55 57 58 56 58 61 66 76 75 68 64 59 57 59 58 67 55 50 51 62 55 50 51 50 50 54 59 68 63 64 71 72 75 74 73 72
84 84 84 80 77 71 80 91 87 80 67 60 62 66 65 69 67 68 60 56 59 65 62 68 55 54 54 64 50 49 51 49 50 55 60 61 64 70 78 83 86 80 80 85
84 85 87 87 85 75 64 70 81 91 93 87 75 64 62 64 64 64 62 58 61 66 66 63 59 61 60 65 51 49 50 52 53 56 65 76 79 85 86 87 86 85 90 87
91 92 93 91 89 83 84 80 76 72 82 82 83 75 77 82 76 63 60 63 64 69 67 61 61 63 60 60 52 50 51 53 63 74 73 68 87 88 89 89 88 86 88 87
97 97 98 96 97 97 96 93 84 80 69 67 67 72 78 67 65 63 72 72 67 71 66 63 64 64 67 60 52 50 53 66 79 76 75 84 87 89 89 88 90 90 90 90
93 94 95 94 97 98 94 96 96 87 78 73 70 68 68 67 63 65 67 71 71 73 68 61 63 63 67 60 52 49 53 60 64 70 79 81 85 89 87 88 89 89 86 88
96 78 96 86 91 92 94 95 94 97 91 80 76 71 71 71 70 70 69 74 75 79 69 63 67 70 68 64 54 49 57 64 69 78 80 85 86 88 88 90 89 89 90 89

GFSNGP_sfc_rhum_060.txt.gz
RH
62 60 64 68 71 67 87 71 93 47 48 30 30 36 37 50 62 60 52 45 46 47 48 51 52 55 54 54 53 53 55 60 63 64 72 73 73 73 73 76 73 73 72 70
84 65 67 84 64 66 67 61 63 53 54 34 32 34 46 64 67 62 55 48 45 45 49 58 59 61 61 60 60 58 64 66 64 69 73 82 85 81 81 90 90 88 90 89
71 68 68 82 72 65 62 58 55 73 47 37 39 43 60 72 67 58 52 53 47 45 47 54 61 64 67 64 63 69 71 69 70 77 83 87 86 89 94 95 95 95 97 97
74 69 84 51 53 51 56 49 52 49 44 40 41 58 68 63 59 51 50 54 47 43 48 51 55 57 60 68 78 94 94 94 94 90 89 87 91 96 97 97 99 99 99 100
76 64 50 51 60 59 63 63 47 49 43 41 50 70 74 61 50 48 47 46 47 50 53 53 56 58 64 73 76 92 95 96 96 95 95 96 100 100 100 100 100 100 100 100
80 85 60 53 51 52 50 67 54 50 50 53 67 71 69 62 53 55 51 51 53 56 61 64 66 62 67 79 83 93 95 97 97 96 97 99 100 100 100 100 100 98 99 88
70 75 48 38 42 46 82 66 54 60 59 58 64 63 72 64 64 60 60 62 63 66 72 74 71 80 93 96 98 99 98 99 98 99 100 100 98 99 88 68 62 60 53 52
69 77 73 44 63 75 62 55 53 54 56 62 71 74 70 69 70 70 70 69 68 71 78 79 88 94 97 100 98 97 97 96 97 87 70 60 52 42 37 34 35 35 35 37
55 48 39 44 53 48 55 49 52 56 54 60 76 76 68 77 77 74 74 76 75 82 89 90 92 94 99 98 95 88 73 61 46 35 32 35 37 38 33 31 29 26 27 33
60 48 44 40 43 55 56 57 54 54 54 64 67 70 74 74 82 82 76 75 66 76 89 90 92 94 94 90 72 54 38 33 31 30 30 29 27 28 26 24 24 26 32 38
55 51 50 47 52 61 60 55 54 53 55 61 65 67 67 72 80 80 78 72 71 82 80 93 93 91 76 63 47 36 34 34 32 30 30 34 37 32 29 36 36 35 42 41
51 47 51 55 65 76 64 61 58 56 59 68 67 66 64 67 74 78 81 77 79 76 83 93 88 74 61 51 38 34 32 32 33 35 39 42 43 49 59 59 59 59 60 52
55 66 65 62 64 66 64 61 57 57 57 64 70 62 63 65 73 79 78 73 78 76 77 77 75 65 53 47 38 34 32 36 37 38 38 37 35 32 43 54 56 57 55 54
60 63 65 66 65 62 65 62 61 60 61 65 68 62 60 65 72 76 72 70 71 68 70 67 65 54 45 44 39 37 36 46 31 27 28 28 25 28 28 30 30 32 45 54
70 70 69 66 69 69 64 61 63 60 58 63 73 64 60 63 71 71 64 64 68 62 63 63 58 45 43 44 42 38 39 35 28 29 30 32 32 33 34 36 36 36 38 44
73 73 73 77 76 74 75 68 65 59 59 57 66 72 61 58 63 62 62 63 71 71 64 60 50 41 46 45 40 40 35 38 34 31 36 34 34 34 36 37 38 38 40 40
80 82 88 95 87 76 74 75 74 69 64 57 55 66 66 61 68 68 60 59 66 64 60 58 51 46 48 45 44 36 34 38 42 35 34 33 33 34 36 39 40 41 41 44
76 77 77 78 81 79 77 75 75 75 70 62 58 62 67 68 70 71 66 57 58 57 55 53 51 51 46 44 41 37 38 39 40 33 35 38 35 36 39 40 41 44 45 48
89 93 87 85 83 87 82 67 70 75 66 58 56 60 61 64 64 64 62 62 58 59 54 50 63 57 48 47 45 44 42 42 35 34 37 42 45 41 41 42 44 47 50 50
99 98 87 82 83 90 88 55 53 58 56 53 52 54 59 67 66 76 76 74 71 72 74 57 61 52 48 49 55 43 39 36 32 34 40 40 38 37 40 50 51 50 50 49
78 77 78 80 81 78 86 86 62 53 50 49 52 56 58 65 73 79 86 88 86 80 66 63 58 49 46 49 55 42 38 34 33 34 38 42 43 44 44 48 50 51 53 51
71 74 75 74 69 65 60 75 90 86 72 66 65 73 82 85 83 84 79 76 62 69 59 58 56 52 46 59 53 39 36 34 32 33 37 37 41 45 52 58 64 62 63 66
67 72 76 78 77 71 63 64 62 65 88 92 86 76 75 73 69 68 63 53 56 62 58 57 58 61 58 56 46 36 35 35 35 36 40 52 55 63 64 65 68 70 74 74
72 74 77 78 76 75 82 79 72 63 60 67 75 81 83 82 77 66 53 55 60 62 62 58 61 64 61 58 46 38 36 36 40 51 46 53 65 68 68 68 74 71 72 74
78 80 82 84 79 80 77 79 84 78 67 59 56 56 67 68 72 72 74 76 72 66 67 64 66 66 59 58 46 40 39 49 68 61 52 67 69 72 70 72 75 73 75 78
66 61 62 69 73 70 65 71 79 85 84 79 68 59 57 57 56 56 58 68 71 70 74 62 63 62 62 58 48 41 40 44 49 58 62 72 72 70 70 72 72 74 73 76
69 65 63 55 60 62 73 77 78 79 83 86 86 72 60 59 58 58 60 58 69 72 72 61 62 63 65 62 53 44 46 50 56 68 80 78 72 75 71 71 76 75 75 76

GFSNGP_sfc_rhum_063.txt.gz
RH
50 50 54 64 62 59 92 70 92 43 37 28 27 29 32 39 51 56 50 45 44 45 44 48 50 52 51 54 53 53 55 58 62 63 69 72 73 76 74 73 76 78 78 78
86 56 57 75 57 58 62 62 55 48 48 30 27 30 36 43 59 60 52 48 44 44 46 53 54 59 58 58 58 56 58 60 60 64 71 78 81 84 85 85 87 88 89 88
62 58 59 75 62 59 58 53 54 70 42 34 35 38 42 56 61 58 50 47 46 44 46 52 56 57 60 59 63 67 70 66 68 72 77 80 84 88 93 96 96 97 97 98
69 64 84 58 47 45 51 46 46 43 37 34 35 38 59 57 57 49 46 49 46 43 46 49 50 52 55 66 76 83 83 83 80 81 86 90 95 97 97 97 97 97 99 100
74 58 45 36 51 52 58 60 43 42 37 36 38 59 64 54 48 45 44 43 43 44 48 50 51 52 59 64 76 81 94 90 92 92 94 96 99 100 100 100 100 100 100 100
78 79 61 56 50 44 44 69 51 44 44 45 54 73 68 56 48 48 44 44 47 48 53 55 56 54 63 73 90 94 95 96 94 94 96 99 100 100 100 100 100 91 97 83
70 73 51 36 50 41 76 74 51 52 52 50 60 59 66 57 55 51 51 53 52 53 60 59 62 70 85 95 97 96 96 97 96 97 98 99 98 96 87 66 58 55 53 52
62 75 74 36 52 53 64 50 47 48 51 55 56 68 66 62 64 63 64 62 57 61 67 70 80 82 90 98 98 96 94 92 92 80 66 58 54 42 38 31 32 32 32 36
50 49 37 39 47 42 47 54 52 53 50 53 70 71 66 68 69 65 61 63 60 72 85 85 87 89 96 96 89 81 73 65 45 33 33 36 42 41 32 27 24 24 27 35
49 41 39 35 38 45 51 54 51 49 51 54 58 65 66 68 73 72 67 65 62 71 84 94 84 89 84 80 70 58 43 32 31 31 30 28 26 31 28 22 23 27 33 38
47 40 44 47 43 49 56 53 52 49 50 54 56 61 64 66 73 72 69 63 58 69 79 91 87 83 72 65 53 39 30 30 30 28 27 32 36 34 31 44 46 37 45 44
49 38 40 50 55 62 59 57 55 55 53 57 58 58 59 61 65 68 69 66 64 73 76 84 87 76 65 55 42 32 31 31 32 34 35 38 42 53 63 60 59 59 59 57
47 54 54 54 60 60 58 58 56 55 52 54 59 58 58 59 62 69 70 72 75 75 77 82 82 70 60 50 38 34 35 36 36 38 38 39 36 34 46 59 56 56 56 54
52 56 59 56 57 56 56 56 56 55 54 54 55 58 57 59 62 68 72 73 74 72 77 77 75 68 54 47 41 39 39 43 37 36 38 35 26 28 28 30 30 34 49 53
54 58 58 58 57 58 61 58 60 58 54 54 59 62 60 62 66 71 68 64 73 73 72 68 68 62 49 46 45 41 40 41 34 33 35 33 32 32 32 33 34 34 36 43
65 67 66 66 66 66 64 65 66 61 55 54 54 64 62 59 60 66 67 66 77 78 70 68 69 52 46 50 46 42 41 43 35 34 35 34 33 33 34 34 35 36 37 38
70 73 80 88 82 68 65 62 64 66 67 59 54 54 66 63 61 64 66 65 71 75 80 71 68 49 51 50 49 42 40 42 40 35 37 34 34 33 33 36 38 39 38 37
71 70 70 71 74 75 74 71 70 67 68 65 61 58 67 69 66 68 66 65 70 78 82 74 60 53 51 48 47 42 41 42 45 38 36 37 35 34 36 37 38 40 41 41
78 85 90 84 82 85 90 84 60 54 64 70 62 60 58 63 65 67 67 66 68 74 72 69 68 60 54 54 50 46 44 42 44 36 37 39 40 38 39 40 41 42 45 45
98 97 98 87 80 86 91 86 68 50 53 58 57 55 60 62 66 67 64 66 64 69 72 74 76 58 53 54 56 46 44 43 38 33 37 38 41 41 39 42 42 44 47 46
75 72 72 75 79 81 81 90 89 65 51 48 51 52 57 59 68 77 79 80 79 84 81 79 88 80 62 52 57 46 44 40 35 35 39 43 39 39 39 43 44 44 46 47
59 64 67 67 66 61 57 56 59 82 87 79 76 74 77 80 81 86 82 83 89 87 97 98 98 95 78 60 59 47 43 38 34 33 38 38 44 48 55 59 66 65 66 71
55 59 59 68 70 69 64 68 65 58 62 79 91 86 86 88 88 91 90 80 75 77 90 89 94 91 98 76 57 47 42 39 35 34 40 54 58 68 70 72 74 75 79 80
56 58 63 64 68 65 68 68 76 71 64 58 64 71 83 88 86 82 78 70 62 61 67 59 62 66 65 56 54 46 41 38 42 52 46 51 73 74 74 72 76 77 78 75
68 71 70 71 57 58 62 66 70 81 78 70 65 58 57 63 71 72 72 70 67 69 70 67 66 69 64 58 56 46 42 51 64 61 55 70 74 78 77 76 78 79 80 80
55 46 48 54 56 59 56 62 65 69 76 80 79 76 66 59 57 58 57 61 70 82 82 72 70 69 68 63 62 48 43 46 50 55 64 71 78 86 80 76 77 78 78 81
65 63 54 51 52 52 59 68 69 64 66 69 72 73 78 71 61 59 58 57 61 67 77 71 70 69 69 65 62 50 46 49 54 62 67 80 86 86 77 77 79 79 80 80

GFSNGP_sfc_rhum_066.txt.gz
RH
61 54 63 76 70 68 91 82 83 66 48 35 37 39 40 52 59 63 59 52 53 57 62 66 70 73 71 73 71 70 72 76 80 82 77 76 82 81 77 79 82 89 83 85
92 61 64 79 65 67 72 72 73 64 62 44 41 39 49 58 66 70 64 55 50 52 59 67 78 76 70 74 76 74 75 77 77 76 76 81 83 85 88 90 91 91 92 95
85 70 70 86 73 69 68 65 68 79 56 44 46 44 53 68 69 70 59 54 52 53 61 71 74 71 78 83 80 75 78 79 78 76 82 85 89 95 95 97 96 97 97 98
92 83 98 67 56 54 59 57 57 54 48 41 42 55 67 72 72 63 53 55 52 56 60 65 65 69 79 81 81 85 84 81 79 83 91 92 96 97 97 97 97 97 98 99
94 83 60 62 55 58 64 65 50 53 47 44 56 71 78 63 57 55 54 55 55 60 62 63 58 70 76 75 78 84 87 86 84 84 95 97 98 99 100 100 100 99 96 97
89 89 86 70 54 52 54 79 60 50 49 50 70 91 87 65 56 55 52 54 59 62 65 63 61 73 74 83 90 96 93 90 87 94 97 98 100 100 99 95 100 98 97 95
87 84 69 60 57 51 87 85 66 61 63 62 77 85 76 65 64 59 60 61 62 66 73 72 82 86 86 91 96 97 96 97 94 96 99 99 99 98 95 88 80 73 71 70
76 91 86 55 58 65 73 61 60 65 67 66 77 75 70 67 67 69 71 70 69 78 83 87 82 86 93 98 97 94 93 92 97 94 86 85 80 70 54 48 50 53 54 58
64 72 52 49 59 55 60 62 66 69 65 64 77 75 70 73 72 68 68 75 73 90 88 90 86 87 97 98 92 90 91 88 73 57 52 54 57 52 45 38 37 38 47 57
60 53 51 45 52 62 68 67 58 59 63 66 73 77 72 71 74 72 68 72 77 86 83 90 88 90 93 89 84 81 69 49 44 45 44 42 38 41 39 40 38 44 48 56
62 53 55 61 52 60 66 66 65 59 60 64 68 75 74 75 75 74 76 68 76 84 81 86 88 87 81 84 81 62 41 42 43 42 39 56 74 68 59 78 72 60 70 62
72 60 59 82 76 71 72 72 70 70 69 66 70 71 72 77 79 78 78 71 77 81 79 81 83 82 85 78 67 43 43 45 47 48 51 61 73 83 63 63 58 58 56 63
67 70 69 68 72 74 73 73 71 69 66 70 73 70 72 76 77 77 80 70 69 76 79 78 88 83 83 71 56 45 48 48 51 51 55 58 57 74 81 71 57 55 54 52
65 72 79 69 75 70 70 67 64 70 66 65 67 69 72 74 77 80 81 72 72 77 79 82 83 79 79 64 52 49 51 52 55 55 56 53 43 38 39 41 46 52 55 53
67 74 74 72 72 74 78 75 78 74 70 67 68 73 75 77 83 83 81 76 75 76 80 83 82 82 72 62 55 54 55 60 56 51 48 44 40 40 41 42 44 46 48 45
75 76 78 79 79 81 83 81 83 80 74 70 67 70 76 76 80 85 85 78 86 85 80 82 84 82 67 66 60 58 57 57 50 47 46 46 44 44 44 44 45 47 48 49
86 88 86 90 89 87 82 79 81 81 83 84 80 67 73 80 80 86 88 76 76 79 78 81 82 69 65 64 62 61 62 60 53 46 48 48 45 45 45 46 48 49 50 44
75 74 74 78 88 90 89 86 86 80 86 81 83 75 72 81 78 80 84 80 85 86 88 84 78 63 61 61 58 58 58 57 61 53 49 46 45 44 45 46 48 49 51 47
84 91 94 86 82 85 88 89 82 63 55 67 86 78 72 72 77 82 76 76 80 88 86 86 81 72 61 61 58 56 56 55 57 52 46 45 48 48 46 49 50 52 54 51
98 98 97 92 84 85 86 84 89 76 55 61 70 73 72 75 77 81 78 81 76 77 81 82 84 78 67 64 60 54 51 52 53 49 46 48 50 51 52 48 49 50 54 54
93 80 79 74 73 82 81 78 82 90 88 75 68 67 68 70 79 81 83 81 76 78 78 83 85 81 76 75 66 58 55 53 48 45 44 47 47 50 48 50 49 50 54 53
62 68 71 72 74 73 70 70 67 64 74 88 89 86 85 83 81 85 81 82 88 82 87 88 96 98 97 97 97 66 54 50 44 41 48 48 52 53 63 71 73 72 67 77
64 64 66 77 82 80 76 81 84 74 75 75 83 92 90 88 92 95 94 87 94 91 99 99 98 100 100 98 96 72 55 50 44 41 50 63 64 74 73 74 75 77 90 86
66 70 75 76 80 76 77 76 77 90 89 77 71 70 82 91 87 87 88 95 98 86 87 97 99 100 100 98 96 97 96 73 49 56 50 54 76 78 80 81 80 86 85 79
80 88 88 86 70 75 78 86 85 92 90 92 90 84 76 72 84 83 82 80 73 71 72 71 70 78 96 97 96 95 92 64 71 64 57 71 82 88 86 89 87 85 88 92
76 63 67 68 70 76 72 79 87 86 89 90 90 90 88 90 81 75 72 67 75 76 92 79 78 75 79 74 67 60 54 54 56 59 70 74 83 87 90 91 87 82 90 92
91 71 89 74 67 66 71 86 90 83 79 84 86 84 88 91 87 77 69 75 73 77 84 86 78 75 80 77 71 65 58 59 62 71 76 82 85 89 88 90 85 87 93 89

GFSNGP_sfc_rhum_069.txt.gz
RH
63 60 72 78 74 77 84 73 81 66 56 46 47 48 44 51 67 70 61 57 60 64 70 72 78 79 79 78 77 77 80 86 91 89 79 81 83 84 83 89 86 83 81 78
87 65 66 78 73 75 78 72 72 71 72 48 39 40 58 65 72 72 67 57 56 60 70 77 84 82 79 85 85 81 85 88 84 77 80 84 89 91 93 93 91 92 96 93
92 76 77 82 74 70 75 73 64 79 58 54 51 49 62 70 73 72 68 60 55 58 70 82 81 80 93 93 86 86 86 86 78 83 90 93 95 94 96 96 96 95 97 98
95 86 93 53 62 60 61 64 67 64 56 52 49 54 70 75 78 75 62 58 57 64 73 75 76 87 92 90 81 85 83 82 85 91 91 96 96 97 96 92 91 91 95 95
94 94 66 73 61 63 73 71 61 62 56 50 66 74 79 70 64 64 58 60 58 65 70 73 78 86 89 88 83 84 87 87 86 89 96 97 99 99 100 97 96 95 98 94
91 94 93 68 60 55 59 87 70 57 55 54 72 74 76 67 58 58 57 59 66 68 72 72 77 84 88 90 86 89 87 87 85 91 97 98 99 100 96 98 98 91 94 92
93 87 75 54 65 62 88 82 72 57 55 64 71 69 79 64 63 60 62 64 68 72 77 81 92 92 96 94 97 95 92 93 94 97 98 96 94 97 97 88 81 82 79 84
91 94 92 63 61 74 71 69 66 68 68 71 80 76 71 68 66 66 70 74 74 83 90 94 92 92 94 98 97 94 95 94 96 98 93 93 91 90 85 71 68 69 65 67
73 72 55 58 66 67 66 64 65 70 68 74 78 76 71 74 70 68 69 77 80 92 95 93 88 87 97 97 94 92 89 97 96 89 73 65 62 57 50 48 44 46 54 64
62 56 53 53 61 70 70 70 67 64 64 65 77 77 76 73 75 72 71 72 88 93 96 92 86 84 92 92 87 90 95 84 60 54 54 51 45 46 44 43 44 47 52 60
68 61 58 55 57 66 70 68 67 67 65 66 70 78 75 76 77 72 72 75 85 91 90 86 87 85 87 83 93 93 73 52 48 47 45 61 73 52 68 80 59 59 65 61
78 62 62 79 84 75 76 76 73 78 78 70 71 73 76 78 80 80 80 76 85 88 87 82 88 84 78 81 93 78 50 51 51 49 56 69 86 88 64 64 57 58 61 66
66 79 77 77 76 74 76 75 75 79 75 74 73 76 79 81 80 80 83 79 76 80 84 81 81 80 80 91 87 56 52 54 55 53 59 68 80 84 80 73 58 56 54 52
74 73 81 78 79 74 72 73 71 79 73 71 73 75 77 78 78 84 83 78 75 74 80 81 84 88 90 86 74 55 55 55 58 62 63 66 61 60 62 65 58 48 58 56
77 78 76 76 78 81 82 79 84 82 79 76 72 76 79 81 82 83 83 81 78 82 80 82 85 84 83 77 66 57 55 68 64 64 63 57 47 43 43 43 45 46 50 48
82 81 79 81 82 85 85 85 86 86 84 82 78 75 79 82 83 86 88 86 88 91 83 85 87 79 81 73 63 58 59 59 61 55 51 52 46 45 45 46 46 47 48 49
86 88 88 90 88 88 88 87 88 90 90 89 87 86 77 82 85 90 92 88 86 88 82 87 89 89 82 70 64 57 57 67 62 50 47 48 47 47 46 47 48 49 49 44
78 77 80 79 85 92 93 92 92 83 79 80 78 88 86 81 87 87 89 85 90 90 91 91 91 85 75 66 62 61 57 57 64 52 47 49 48 47 47 46 46 48 49 46
86 91 90 85 83 84 87 87 86 83 67 61 72 90 88 83 85 86 84 84 87 92 89 91 91 85 71 67 66 61 58 55 54 53 47 47 52 47 47 47 47 49 51 48
98 97 92 89 84 84 84 84 85 85 77 66 64 76 79 80 82 86 87 87 81 82 86 91 90 84 75 70 76 61 56 53 50 50 49 46 48 48 49 49 48 47 50 48
99 99 98 96 88 84 72 68 66 68 82 88 83 83 80 76 82 86 88 91 80 81 85 88 93 88 79 73 81 70 71 54 50 51 50 50 46 50 51 53 50 50 50 51
70 69 71 72 76 77 77 80 77 72 72 76 87 90 88 89 88 85 81 82 85 78 87 90 92 88 85 87 98 97 96 85 54 49 50 46 49 51 59 65 66 63 60 66
66 65 70 76 82 82 77 70 79 90 89 80 78 80 92 94 90 96 97 98 98 96 99 97 96 98 100 98 98 98 96 96 94 61 51 59 61 69 70 72 76 74 82 85
68 70 75 74 77 70 64 70 79 92 94 92 89 84 82 86 88 93 91 82 89 98 99 100 99 100 100 98 98 98 97 96 96 96 93 71 76 72 76 77 79 82 88 82
78 90 91 85 72 74 81 90 89 91 90 90 90 93 92 92 87 82 82 78 74 77 85 76 79 92 99 99 98 98 97 97 97 96 96 95 76 78 78 81 82 88 91 91
76 66 67 69 67 75 73 82 89 90 88 90 88 88 92 92 94 91 84 76 78 75 86 93 88 80 83 97 98 94 94 96 97 97 95 78 76 82 80 82 86 85 90 90
93 74 92 75 70 70 73 82 92 87 82 87 88 88 90 88 90 89 81 82 80 78 82 86 91 87 90 90 88 78 68 68 71 78 91 93 84 94 80 82 86 90 91 90

GFSNGP_sfc_rhum_075.txt.gz
RH
73 67 80 82 82 90 95 86 90 72 73 53 43 48 48 55 73 77 73 73 70 70 75 77 80 81 82 85 88 90 94 95 95 82 82 83 85 85 83 87 87 87 78 83
88 70 80 83 76 82 91 88 90 80 70 49 43 53 49 55 72 79 77 70 69 66 70 76 82 82 81 84 86 88 93 94 90 82 85 89 91 90 89 90 91 92 94 91
88 82 76 82 70 71 78 73 73 86 60 56 54 47 49 56 64 66 72 70 67 64 67 76 81 82 87 87 86 90 92 92 83 85 89 91 90 93 95 92 92 93 94 91
94 86 96 65 59 62 61 54 67 63 60 50 50 51 51 55 55 64 71 68 63 67 75 84 88 89 90 89 88 90 91 90 87 89 95 92 92 95 92 91 89 87 93 93
95 97 76 60 73 74 73 67 58 65 57 55 55 73 71 66 69 67 73 70 62 65 80 88 90 95 94 95 94 92 88 92 89 93 97 97 99 99 100 96 98 98 98 93
97 98 91 56 74 63 71 80 72 63 63 64 73 78 72 74 77 80 75 66 67 78 84 91 96 95 95 96 94 88 87 89 88 92 97 98 100 100 97 96 98 98 94 92
89 89 84 60 57 67 85 69 79 72 70 70 80 66 64 77 69 72 69 68 75 79 83 90 95 95 96 96 96 89 88 90 93 95 98 98 96 96 94 93 90 94 87 89
94 95 92 61 74 75 68 79 79 76 75 70 73 82 83 72 70 68 69 77 76 84 87 94 95 94 96 97 95 91 91 93 97 96 90 90 93 97 93 95 92 88 86 82
84 80 58 62 68 67 71 74 75 74 79 65 77 82 75 71 67 66 68 71 74 84 91 95 95 92 97 95 94 93 93 96 97 93 90 94 97 95 91 82 78 70 61 63
71 60 61 57 63 68 73 78 70 71 71 71 73 78 75 73 71 69 69 70 72 80 91 97 96 94 93 90 90 91 92 94 95 97 99 96 86 75 72 64 59 46 48 55
75 67 67 59 56 62 76 78 77 70 71 73 77 79 75 75 76 74 73 73 74 79 85 92 96 96 96 88 87 90 90 92 98 97 92 76 63 57 52 48 46 45 52 54
76 60 57 56 71 65 77 77 75 74 78 77 78 78 83 76 76 76 76 79 83 84 88 88 93 95 92 88 88 86 86 94 94 79 77 63 62 77 58 55 62 59 53 59
58 65 69 82 84 82 78 79 76 77 79 80 80 79 80 80 82 81 83 82 83 85 83 88 93 92 88 87 90 94 91 95 75 65 64 68 84 85 80 81 62 60 59 62
72 78 85 85 81 81 73 72 73 78 78 78 81 79 84 85 87 88 87 82 84 84 85 83 90 91 86 82 92 94 95 82 65 68 60 67 73 77 79 73 76 78 69 63
78 82 76 84 84 84 85 82 83 82 83 82 82 82 83 85 87 88 84 87 83 86 85 86 88 90 84 82 90 94 95 86 70 64 62 60 65 72 76 76 73 67 49 47
88 88 87 85 86 86 84 86 86 85 86 87 89 87 87 87 87 88 89 89 86 86 81 86 88 79 85 89 91 93 93 84 72 59 59 65 65 62 63 63 57 49 46 43
88 92 89 90 88 88 86 86 86 88 91 92 92 90 87 89 91 89 88 92 89 87 84 85 86 90 88 88 92 91 90 82 75 64 56 57 60 58 54 51 48 45 41 39
87 88 84 84 87 90 91 90 90 94 92 89 80 77 81 86 89 91 90 88 94 94 91 91 92 92 87 88 90 89 86 76 71 69 57 54 54 54 51 47 43 42 42 43
89 88 85 83 83 85 88 89 87 86 79 80 71 66 68 79 93 92 90 91 94 96 92 92 91 92 94 92 89 86 80 75 68 67 60 55 54 50 46 44 42 42 43 42
94 88 86 88 85 84 85 76 73 75 79 91 97 82 78 76 76 84 88 92 91 93 88 88 93 96 95 94 89 88 82 77 74 73 67 55 52 51 50 48 44 42 43 41
99 99 99 100 99 97 91 83 70 70 67 68 83 91 92 90 90 86 82 86 89 90 88 85 91 96 97 95 95 97 89 85 85 96 96 96 90 76 70 73 59 47 45 43
93 95 93 90 88 88 82 81 87 86 79 73 73 76 80 85 88 90 97 99 99 98 99 97 97 92 97 89 98 99 98 98 98 98 97 97 97 96 96 96 96 95 82 67
82 77 78 81 85 87 61 63 80 89 90 90 87 93 88 84 86 96 91 83 83 83 97 100 100 100 99 99 99 99 99 98 98 98 98 97 97 97 96 96 96 96 96 96
68 68 69 72 80 65 53 66 83 84 85 86 89 92 96 98 94 92 90 81 76 76 80 83 85 93 99 100 100 99 99 99 98 98 98 96 97 97 97 96 96 96 97 97
75 90 91 87 70 60 79 89 86 88 84 82 81 84 87 94 97 95 96 90 81 81 85 77 75 80 93 98 99 99 99 98 98 98 97 96 96 96 96 96 95 95 96 96
77 65 68 66 58 66 66 74 75 83 86 82 81 87 92 87 91 94 94 88 93 86 91 88 88 92 94 94 93 95 98 99 98 97 97 96 96 96 96 95 96 96 97 96
93 78 90 70 69 72 75 75 85 84 82 87 88 90 91 80 83 86 82 92 93 95 95 94 92 91 93 94 95 95 97 94 94 98 98 99 98 96 96 96 96 96 96 97

GFSNGP_sfc_rhum_078.txt.gz
RH
73 66 86 91 88 88 98 87 97 80 72 53 46 46 48 58 74 85 82 82 79 79 80 80 80 81 82 84 89 92 94 96 95 84 82 83 85 84 85 86 88 84 80 85
91 72 82 89 82 87 88 88 85 78 78 59 48 52 53 56 66 76 78 76 78 76 77 82 85 82 80 84 88 88 92 94 92 84 86 89 89 89 88 92 92 91 89 90
91 83 77 87 75 74 80 86 80 90 70 63 59 52 49 59 70 69 71 72 75 71 71 75 82 82 88 89 89 92 94 94 88 86 89 91 89 90 91 94 92 90 90 90
92 87 96 64 59 63 67 60 73 73 65 57 54 52 52 54 56 65 67 72 71 70 74 76 82 84 88 88 91 92 94 94 90 89 92 91 92 93 91 88 87 88 93 94
95 93 79 60 69 76 76 68 62 62 56 54 58 67 60 56 53 54 64 68 66 67 73 84 84 88 89 91 92 93 94 96 89 92 94 95 98 99 99 95 97 98 96 94
98 96 95 57 76 65 72 85 68 71 65 68 71 72 64 70 72 71 72 73 67 73 83 87 95 92 94 96 96 96 93 91 89 92 94 98 100 99 95 98 98 98 95 93
96 92 80 63 57 72 87 68 82 80 74 74 78 64 64 79 81 81 77 72 77 81 87 91 96 94 96 96 97 93 91 91 92 94 98 98 98 97 97 97 96 91 87 89
97 97 92 63 77 76 66 79 81 80 79 76 77 78 82 79 76 75 75 78 77 85 91 96 96 94 96 97 94 95 93 93 98 97 93 91 92 91 89 91 98 92 87 85
85 78 58 66 72 72 73 78 78 80 82 70 76 82 81 76 75 73 72 76 78 82 90 96 96 94 96 95 96 96 93 96 96 94 89 88 92 99 93 95 92 84 72 67
76 61 67 62 62 68 75 78 78 68 74 72 75 79 78 75 73 70 68 73 74 83 83 91 96 95 93 97 86 92 93 95 96 95 96 94 96 91 89 88 80 66 59 56
77 67 68 59 61 58 71 77 78 78 78 81 79 79 75 74 73 72 73 73 75 75 77 82 93 95 95 94 91 92 92 94 97 97 98 99 95 87 78 70 64 56 52 50
73 59 57 55 66 62 74 78 76 74 78 80 80 83 85 81 74 73 72 75 78 81 85 88 88 90 94 92 90 92 94 94 94 94 98 90 81 66 61 56 53 53 48 52
63 66 64 82 83 81 78 80 79 78 77 78 82 80 84 83 80 78 81 79 77 79 84 89 91 92 94 94 90 90 88 91 92 94 91 81 70 71 69 72 63 64 64 61
78 83 83 84 81 84 83 75 74 82 82 82 82 82 85 86 88 88 89 86 84 85 88 90 88 86 90 93 94 93 89 86 89 93 78 72 71 72 76 72 80 89 72 65
73 84 80 86 84 86 86 82 83 85 84 85 86 85 86 86 88 89 89 89 89 90 87 88 89 84 85 91 95 96 96 97 94 82 71 63 64 69 72 75 74 69 66 56
86 87 88 87 88 88 86 86 86 87 87 89 90 90 92 91 91 89 88 91 93 93 82 84 85 80 85 88 92 94 92 88 86 73 66 65 63 61 65 69 70 68 65 56
87 90 89 90 89 90 88 88 88 89 91 91 91 86 82 82 86 87 89 88 89 87 86 89 90 88 89 88 91 90 92 93 89 84 72 60 58 59 56 59 59 58 53 45
88 88 83 82 87 90 92 92 93 93 93 89 78 76 77 80 86 91 93 92 91 93 94 91 91 92 92 88 90 90 93 94 93 91 76 66 58 57 58 56 54 52 48 43
90 91 90 89 88 90 92 89 88 87 84 88 85 79 69 73 76 81 90 91 92 94 91 92 90 92 94 94 93 94 96 95 88 86 79 70 67 58 56 53 50 48 46 42
93 88 86 87 84 84 82 79 72 71 71 84 97 96 93 94 89 82 82 88 91 93 93 90 91 96 95 95 91 97 94 90 87 83 96 84 86 92 63 53 49 46 45 42
99 99 99 98 98 89 82 76 70 76 72 73 76 81 84 92 90 94 96 96 95 98 98 93 93 95 96 95 96 98 96 93 90 97 98 98 97 97 96 94 86 68 50 46
97 99 99 99 97 89 74 77 87 88 84 82 80 84 82 83 83 90 96 88 84 76 96 99 99 99 99 92 99 100 99 97 97 97 97 98 98 97 97 97 96 96 96 96
80 76 76 80 83 84 60 66 85 88 92 93 92 94 94 91 90 91 88 85 86 82 87 96 87 96 98 100 100 99 99 99 99 98 98 98 97 97 97 97 97 97 97 97
66 65 66 74 80 74 59 62 83 84 83 79 80 83 93 94 90 94 91 86 81 79 81 81 80 77 76 99 100 99 99 99 99 99 98 97 98 98 98 98 97 96 96 95
72 88 91 88 72 60 76 90 86 86 81 78 76 81 85 91 96 92 96 93 87 87 90 82 79 80 94 96 94 98 97 98 98 98 98 97 96 96 95 96 96 96 97 96
79 71 65 67 60 60 65 70 70 77 82 77 76 84 91 83 84 91 92 82 91 87 95 94 91 92 94 95 95 91 87 94 97 98 97 97 96 97 98 97 97 96 96 96
92 75 87 67 66 66 71 70 74 75 79 85 82 83 92 81 79 83 81 90 90 92 94 95 96 94 95 95 95 94 99 98 93 93 91 94 97 95 97 97 98 98 98 96

GFSNGP_sfc_rhum_081.txt.gz
RH
81 66 85 86 86 89 96 82 89 70 66 52 47 43 46 44 62 80 78 79 76 76 76 74 72 70 71 76 79 81 83 84 85 79 77 78 79 80 82 80 78 74 77 78
89 70 75 87 84 90 85 79 80 73 76 52 47 52 58 56 56 75 78 74 73 73 75 74 72 70 72 77 80 80 83 84 83 81 81 83 84 87 87 88 87 84 86 84
94 78 77 91 81 77 74 82 78 90 68 57 61 62 58 60 59 60 69 72 73 71 69 70 72 69 73 76 78 81 83 85 82 83 84 87 86 87 90 91 87 87 89 90
94 82 96 61 56 65 70 61 71 74 63 60 60 56 58 52 52 58 65 70 69 68 70 70 72 72 75 80 81 85 85 85 84 84 87 89 89 90 90 86 84 84 89 93
96 90 76 58 61 67 69 60 61 62 58 58 60 59 57 52 50 47 60 61 63 64 65 70 73 75 77 80 82 83 86 87 86 86 90 91 97 98 100 98 93 91 90 88
97 97 91 58 68 65 66 82 63 64 65 66 68 78 62 55 57 54 57 66 66 69 72 72 78 78 81 84 84 86 85 87 85 87 91 96 100 100 95 90 92 86 89 83
95 94 84 57 62 67 85 62 72 78 76 74 77 63 63 74 80 75 75 72 72 76 77 78 84 83 86 89 90 85 87 89 88 91 95 98 98 96 92 87 82 80 74 73
97 97 90 61 72 69 63 75 78 78 77 75 75 69 77 78 79 76 77 80 79 82 87 92 90 87 92 94 90 89 89 90 93 94 92 94 92 86 82 82 80 74 70 68
83 76 60 68 63 66 71 72 76 78 78 70 74 76 75 74 75 74 73 77 78 84 93 94 92 87 92 90 89 91 90 92 94 93 91 89 88 88 86 88 84 76 64 59
79 63 68 61 61 66 66 72 74 67 73 64 69 75 78 73 73 72 73 74 74 78 85 90 88 88 83 87 87 89 90 91 93 94 93 88 85 87 86 87 80 64 55 48
78 64 66 61 61 56 60 72 76 75 77 76 79 75 73 73 72 70 70 69 70 72 76 80 86 85 82 88 83 89 88 91 94 93 92 91 88 86 77 70 64 56 51 44
76 57 59 54 58 61 62 75 75 71 74 77 78 80 79 77 72 69 70 70 72 74 76 76 81 84 88 89 88 87 92 95 96 95 96 93 95 88 80 73 68 66 57 48
66 66 64 67 82 80 72 77 79 76 78 79 80 78 80 81 81 76 74 75 76 73 76 77 82 84 84 86 86 88 92 93 91 93 93 92 84 74 68 59 63 60 59 57
67 79 80 81 80 85 82 81 76 79 80 82 80 82 84 86 87 87 87 83 81 80 80 79 82 83 83 88 91 92 88 89 88 90 86 87 79 68 59 56 55 70 73 66
65 75 81 88 85 88 87 83 85 85 85 86 87 86 84 84 85 87 88 90 87 87 85 82 83 81 81 88 95 94 92 88 87 87 84 82 75 68 62 62 60 58 61 62
86 83 82 87 86 88 85 85 88 89 88 90 90 92 91 89 89 88 88 90 91 91 87 84 84 79 84 88 93 94 94 91 92 90 86 82 69 64 60 60 59 57 57 53
92 89 88 89 89 88 88 88 87 90 92 92 91 85 82 81 82 83 86 89 90 93 89 87 87 86 88 87 94 94 95 92 92 88 82 77 71 63 54 52 54 53 51 50
89 86 82 82 88 91 93 93 94 93 92 87 77 74 73 76 82 85 87 89 90 91 91 91 91 91 90 93 93 90 93 93 94 96 86 80 71 63 58 54 52 52 49 50
88 92 91 89 88 91 95 94 93 89 87 90 91 86 75 78 78 77 79 85 93 94 95 93 89 92 93 94 94 96 95 96 97 96 96 89 96 93 72 68 69 54 50 47
90 88 91 86 83 81 81 77 70 66 65 70 80 78 78 86 87 92 90 91 96 97 98 94 90 93 96 95 91 97 97 96 96 93 93 96 96 96 96 96 95 93 72 51
98 98 98 95 91 87 84 78 75 80 73 72 75 79 82 83 84 92 93 93 82 84 97 99 99 96 95 92 95 99 98 98 98 98 97 98 96 96 96 97 96 96 95 88
99 99 99 99 99 89 63 76 85 86 84 86 90 92 90 91 92 96 82 90 87 80 83 92 98 98 99 98 99 99 99 99 99 98 98 97 97 96 95 95 96 96 97 96
73 75 78 79 81 74 56 62 80 80 88 92 93 91 91 92 95 94 89 87 86 82 81 83 79 77 78 99 99 99 99 99 99 98 97 97 96 96 96 94 95 96 96 96
62 62 65 75 77 70 57 58 82 84 83 76 78 81 89 91 86 93 88 84 83 82 82 81 81 78 79 93 97 98 99 99 98 98 98 97 98 97 98 97 97 96 96 95
75 90 90 86 67 60 73 90 84 86 80 79 76 80 84 89 88 85 92 87 80 84 88 84 82 83 88 90 93 95 91 96 97 97 97 97 96 97 96 96 97 95 95 95
77 73 70 65 62 58 62 66 66 70 79 76 74 81 88 83 78 83 88 79 84 80 88 89 89 90 93 93 93 91 93 93 82 86 90 95 97 96 96 95 96 95 94 94
88 77 86 66 66 66 68 67 68 66 74 86 78 78 90 88 77 77 77 84 84 85 87 90 89 87 91 94 95 94 94 94 94 97 97 96 93 91 92 94 94 96 97 97

GFSNGP_sfc_rhum_084.txt.gz
RH
62 58 66 68 64 65 92 77 84 54 48 38 31 28 26 30 32 38 50 52 54 55 52 50 50 49 49 51 55 57 60 62 63 62 61 62 65 66 70 71 67 62 63 67
100 83 68 77 62 60 61 63 60 55 55 35 30 30 34 35 36 39 40 48 51 53 51 51 49 49 50 52 56 58 60 62 64 63 66 68 71 74 76 79 78 74 72 74
86 84 93 92 65 60 59 55 57 73 51 37 40 41 41 38 36 39 39 38 46 49 51 49 48 48 50 50 53 58 60 61 64 64 68 73 74 79 86 86 82 84 85 80
78 70 90 44 47 50 51 46 46 51 45 40 39 37 41 38 38 38 35 37 41 45 48 47 46 48 47 53 56 64 63 66 67 69 74 78 82 84 87 85 84 86 91 95
84 70 50 45 47 52 54 46 40 44 42 41 39 45 50 40 39 38 34 32 38 42 44 46 50 49 52 57 58 63 67 68 70 71 76 83 92 95 100 100 100 100 96 85
93 80 66 38 49 44 46 53 47 48 47 49 54 58 45 44 40 37 33 37 45 48 50 48 50 51 55 58 60 64 65 67 68 70 77 87 99 100 97 95 99 82 86 74
85 81 57 39 47 48 52 44 51 58 58 60 60 47 50 52 54 58 46 43 48 53 50 50 57 57 61 64 69 65 67 72 73 76 84 93 99 98 94 84 73 69 65 60
74 86 73 47 56 51 38 51 51 56 57 58 54 52 53 57 62 62 62 62 57 57 62 66 67 66 69 78 74 74 76 79 80 83 86 93 94 87 77 69 63 60 57 54
57 48 46 45 37 36 44 47 50 56 56 51 56 54 55 57 57 56 57 60 58 65 76 76 72 66 76 76 74 76 75 78 80 81 87 90 90 86 81 68 61 53 49 45
63 40 48 44 39 46 46 47 48 52 57 57 57 52 55 55 55 54 55 56 56 58 61 69 66 67 62 68 67 70 71 73 77 88 92 89 83 80 80 70 63 52 50 43
60 49 43 40 42 37 40 44 49 55 57 58 60 59 57 56 55 53 54 55 56 55 57 61 65 66 64 67 67 69 69 75 80 87 91 90 84 82 82 64 56 50 45 37
61 56 50 41 45 43 45 47 52 58 59 60 60 61 61 59 57 55 54 62 73 80 75 69 74 69 67 66 70 70 74 78 83 90 91 87 85 87 84 70 69 65 54 45
47 53 55 51 49 57 52 52 60 59 57 61 63 60 62 63 65 66 61 62 62 59 64 68 71 74 72 71 76 82 86 83 84 91 92 91 88 88 91 79 79 73 70 68
39 49 67 59 58 61 61 61 66 65 65 64 63 64 65 67 70 70 72 71 68 66 66 63 70 74 70 74 83 84 80 89 88 92 91 89 84 82 76 57 52 55 65 63
35 38 64 62 67 68 67 64 67 68 69 69 67 67 65 65 66 68 68 72 73 71 68 68 68 72 70 76 86 88 91 83 83 82 84 84 82 79 69 58 50 42 44 61
60 70 75 73 72 72 69 68 66 69 68 70 71 71 69 68 66 65 68 70 73 74 73 73 72 69 76 83 88 88 88 88 86 80 82 83 80 78 74 69 62 50 45 43
64 68 83 86 81 75 69 68 65 68 71 69 70 68 62 61 63 64 66 69 70 72 74 79 78 75 78 85 93 91 93 93 91 94 91 88 83 78 74 69 65 55 47 44
67 72 73 72 70 76 78 76 75 74 75 71 68 66 66 66 68 66 66 72 72 70 81 80 79 84 79 83 88 89 91 91 93 95 92 93 94 97 93 83 63 55 49 45
80 85 81 80 76 76 78 79 78 76 78 81 80 80 78 83 83 83 78 80 81 80 91 85 89 81 86 90 91 90 89 87 89 89 93 91 97 97 96 96 94 86 73 84
84 80 79 78 76 75 74 70 63 62 62 64 66 63 67 71 69 73 80 84 79 86 89 97 96 89 87 87 89 92 92 92 93 91 95 97 94 94 94 91 92 93 94 94
97 93 90 87 89 87 82 76 72 70 63 61 63 66 67 68 70 81 76 74 69 72 75 80 92 99 98 98 96 97 98 98 98 98 98 98 98 98 97 96 94 95 95 96
99 99 99 99 98 82 62 65 68 69 68 70 73 71 66 69 75 81 76 75 72 81 71 66 74 77 82 95 99 100 99 99 99 99 98 98 98 98 98 97 96 95 95 95
91 78 77 80 73 59 48 54 62 63 68 72 69 63 63 62 68 66 64 68 73 78 73 72 79 79 78 84 93 99 99 100 99 99 99 100 100 100 99 98 97 98 98 96
95 55 52 62 65 57 44 46 60 61 60 60 63 64 67 59 68 72 68 71 74 74 74 75 78 80 78 77 79 83 88 95 96 96 96 96 99 100 99 98 98 96 96 95
96 75 70 67 56 48 55 64 66 69 61 59 59 62 68 65 61 61 68 67 72 69 66 70 76 78 73 74 76 76 78 79 83 82 86 91 93 94 92 93 94 92 90 87
92 69 57 54 50 49 48 51 47 49 56 55 56 60 67 69 62 62 66 68 66 66 66 66 68 67 70 72 75 74 75 77 78 79 80 81 84 88 90 91 92 90 87 87
80 74 69 60 54 54 55 52 51 48 53 62 57 58 63 72 66 62 65 63 63 64 64 65 69 70 70 72 74 73 71 71 78 81 80 84 84 87 85 84 84 86 86 87

GFSNGP_sfc_rhum_087.txt.gz
RH
59 52 52 63 59 56 85 74 86 53 45 34 30 28 24 22 23 27 30 36 43 46 45 44 46 46 46 46 49 52 54 56 57 56 55 56 59 61 63 64 63 61 60 64
100 92 58 68 55 54 54 55 62 58 53 34 29 27 27 26 27 30 32 32 38 44 44 45 45 45 46 48 51 52 54 57 57 57 59 62 64 67 69 74 73 71 70 72
94 95 99 98 72 58 53 48 49 65 47 34 34 32 32 32 31 32 30 32 32 40 44 43 43 44 45 46 48 53 54 55 58 58 62 64 67 72 79 82 81 82 82 80
93 91 93 42 42 44 47 43 40 41 38 35 33 30 30 29 31 33 31 30 33 32 39 42 41 42 42 46 49 57 55 56 59 60 65 69 73 77 83 85 86 90 96 97
86 69 40 36 44 46 47 42 33 36 32 29 29 34 41 35 33 34 32 29 28 28 32 40 42 42 44 47 50 56 58 60 60 63 68 74 83 89 100 100 100 100 100 93
96 91 59 39 40 35 37 47 37 38 39 44 47 58 44 45 44 43 34 32 31 34 34 39 43 44 48 51 54 57 58 61 62 64 72 79 90 100 98 99 100 94 91 76
78 71 49 34 43 41 49 46 48 49 52 53 56 45 47 46 47 51 50 35 36 41 43 44 46 48 55 57 62 57 60 66 67 70 79 87 99 99 97 90 85 78 70 60
83 85 68 37 48 47 40 44 41 47 52 54 48 46 46 49 53 57 56 54 48 52 53 54 57 57 62 70 68 66 66 70 74 75 80 88 94 90 83 78 75 67 60 57
55 50 44 40 35 36 32 35 39 49 51 52 48 46 48 52 50 52 52 55 54 64 74 70 65 58 68 70 67 70 71 74 75 78 81 85 91 90 83 75 72 63 55 52
60 40 39 38 36 34 36 38 39 42 48 52 49 49 49 50 50 50 52 53 53 57 62 67 59 59 58 63 64 67 69 70 72 79 83 86 86 85 83 78 72 60 52 50
75 54 45 35 38 40 38 34 39 40 48 53 55 54 53 52 51 50 51 52 51 50 53 57 57 58 57 60 61 65 64 67 72 79 84 89 87 85 83 75 69 62 53 51
46 59 61 46 44 44 47 43 41 44 54 56 54 56 54 55 53 53 51 54 57 59 57 58 59 61 62 66 63 62 65 74 75 82 84 88 90 92 81 78 74 68 62 51
34 42 44 51 49 50 55 53 47 53 52 58 57 55 56 58 60 66 56 58 59 58 63 75 89 92 79 69 73 74 74 87 88 88 90 91 91 90 93 90 83 71 73 68
48 54 44 52 62 55 59 57 62 58 58 57 59 58 59 62 63 63 68 68 65 62 62 59 61 68 76 85 90 91 85 88 88 89 96 96 93 90 86 89 85 87 81 75
40 45 54 42 64 58 62 60 63 64 64 64 61 62 59 60 64 65 64 65 66 66 65 64 64 63 62 71 80 86 89 89 93 90 90 92 92 94 91 86 73 54 54 62
42 58 61 77 78 65 66 65 61 62 60 62 64 62 61 60 59 60 61 62 65 70 70 71 71 68 66 72 80 84 88 89 90 93 93 91 89 88 87 83 75 64 54 48
53 59 53 71 73 68 67 62 60 62 62 61 63 61 58 58 58 60 60 60 63 66 73 78 79 77 78 75 86 86 90 91 90 96 94 92 91 89 85 83 81 77 69 54
51 52 58 70 72 68 71 69 67 66 65 63 63 63 64 66 69 69 68 64 68 74 86 82 81 82 75 80 85 85 92 93 96 97 96 97 95 98 98 98 98 93 81 67
74 81 84 84 86 82 76 75 73 71 73 74 73 74 75 76 76 78 79 76 80 84 90 92 95 86 82 86 89 92 94 93 94 95 97 94 96 98 98 98 98 98 98 98
88 88 88 89 88 89 86 73 60 60 61 61 60 60 62 63 63 68 76 77 70 70 80 78 84 93 97 97 94 98 98 97 97 96 98 98 98 98 98 97 97 95 95 94
98 97 96 93 96 93 90 84 75 68 57 55 56 60 62 64 68 76 73 72 70 77 76 72 75 79 80 93 98 99 99 99 99 99 99 99 99 98 98 98 99 98 98 97
99 99 99 99 94 61 51 55 59 59 58 59 64 63 59 62 69 78 76 74 70 77 76 69 76 81 81 80 89 96 98 98 99 100 100 100 99 99 98 98 98 98 98 97
95 81 74 71 66 54 43 44 53 54 58 62 62 57 56 57 61 64 57 65 66 72 73 71 79 79 80 79 79 83 86 97 98 98 98 99 99 99 99 99 99 99 99 98
100 94 64 53 56 52 46 41 50 53 56 56 60 60 64 56 58 66 60 62 66 70 69 69 76 76 76 78 80 83 84 84 88 92 93 89 96 97 98 97 98 98 99 99
99 95 77 72 62 50 58 64 66 70 60 56 55 57 61 60 59 57 59 62 64 65 64 62 69 70 68 70 73 75 77 82 87 86 82 86 87 90 91 93 95 95 95 95
99 98 97 81 58 51 50 51 50 46 49 52 52 55 61 66 63 60 59 62 64 63 64 63 65 69 68 68 71 71 71 74 76 80 83 87 86 82 83 82 81 83 87 91
91 92 85 70 59 53 55 53 52 50 49 52 51 54 59 66 67 63 60 59 59 59 60 61 65 68 69 69 70 70 73 74 74 78 81 86 88 89 88 88 86 84 85 82

GFSNGP_sfc_rhum_090.txt.gz
RH
67 56 75 88 72 71 92 90 85 64 59 44 36 35 40 37 35 36 37 40 56 63 67 68 69 68 67 68 68 68 70 72 72 68 68 70 73 74 76 78 77 74 72 82
98 89 96 93 70 62 65 69 76 67 63 42 40 40 38 37 38 40 41 38 41 57 61 63 68 66 63 66 69 70 73 76 73 72 75 77 79 82 84 88 88 86 84 81
98 97 99 99 93 67 61 56 60 80 58 44 47 42 41 41 40 39 40 39 40 49 60 62 63 62 67 68 68 71 74 73 73 74 78 83 85 88 88 92 91 91 87 85
99 98 97 60 55 56 56 52 52 50 49 45 45 43 44 42 45 42 40 40 41 47 57 60 60 61 61 65 67 75 75 75 76 77 81 86 88 89 90 94 94 95 97 97
98 96 58 51 53 58 66 64 50 50 45 42 40 54 54 50 54 56 52 43 42 44 46 59 61 61 59 66 70 75 77 78 77 79 86 90 91 94 100 100 100 100 100 97
98 97 89 56 50 41 45 68 53 45 50 59 61 84 72 63 58 57 60 57 48 51 47 61 63 59 63 71 74 78 76 78 78 80 88 92 94 100 99 100 100 98 96 91
95 95 66 52 49 50 68 78 63 61 66 71 77 70 64 62 63 68 66 64 58 60 63 61 67 66 72 76 79 76 76 80 80 86 91 95 99 100 99 97 94 93 90 82
90 97 92 57 55 59 60 58 55 61 70 70 65 60 62 64 66 67 69 67 66 73 82 80 75 73 78 83 82 82 84 84 88 92 92 95 98 97 93 86 86 83 78 80
97 81 55 53 54 47 48 49 54 64 70 68 63 62 61 64 66 66 68 68 78 88 89 88 80 80 88 89 84 85 88 91 92 88 88 93 98 96 90 83 81 79 72 74
84 58 63 56 48 53 50 52 50 52 57 68 67 66 64 63 64 66 67 70 76 84 89 88 80 78 85 84 83 86 91 92 93 87 91 92 93 90 88 83 80 77 66 67
81 64 60 58 61 59 58 55 49 52 52 67 72 68 67 65 65 66 67 67 67 73 78 80 78 77 80 79 81 85 85 92 92 86 88 96 93 90 88 78 75 73 68 65
64 56 73 72 48 59 68 67 61 56 69 73 72 70 69 72 67 64 62 69 74 75 76 77 77 79 78 75 71 74 77 86 89 88 92 94 96 94 83 81 80 77 69 66
59 67 62 53 50 66 67 72 69 67 74 74 74 70 71 77 78 73 73 74 69 69 76 84 90 86 84 83 81 77 80 86 88 92 96 97 98 97 98 93 84 81 77 72
52 47 63 48 58 53 68 71 70 73 74 73 72 72 74 77 76 80 85 85 82 79 77 74 77 79 79 82 84 86 91 91 96 97 98 98 96 96 95 96 98 98 86 80
71 45 57 63 69 78 73 74 77 78 78 72 71 73 73 78 81 81 80 79 80 82 82 80 81 79 79 89 93 94 96 96 96 97 98 97 97 97 96 97 97 89 78 79
78 69 61 73 83 82 81 78 79 76 76 78 73 70 73 74 75 75 76 77 83 88 88 90 92 92 86 81 86 90 93 91 92 97 98 98 98 98 98 98 98 92 79 61
84 82 71 73 75 77 78 76 76 77 76 77 77 72 72 72 74 75 74 74 78 89 90 90 89 87 86 89 90 93 96 95 90 97 97 97 97 97 97 99 98 96 85 72
78 70 72 88 83 84 81 79 78 75 76 75 76 77 81 86 89 90 89 77 79 93 96 94 92 94 88 94 94 92 96 97 97 98 98 98 98 99 99 98 98 98 98 99
82 89 89 91 92 92 91 87 84 80 78 80 81 87 87 83 82 84 89 88 89 93 93 91 86 94 98 98 95 97 98 98 98 98 98 98 98 98 99 98 98 98 98 98
96 96 94 95 94 95 95 94 90 84 69 66 66 67 67 71 71 83 88 84 83 88 90 85 88 91 89 93 86 98 99 99 99 99 99 99 99 99 99 99 99 99 98 98
99 99 99 99 99 99 98 94 76 68 58 64 67 72 74 74 80 82 83 90 85 88 86 78 90 94 93 88 89 96 99 99 99 99 99 99 99 99 99 99 99 99 99 99
99 99 99 99 85 64 51 59 64 66 67 71 71 68 64 69 78 88 87 84 87 74 88 90 95 84 82 80 97 85 84 94 96 98 99 99 99 99 99 99 99 99 99 99
97 83 71 67 70 62 49 48 59 60 67 70 69 65 68 71 76 83 80 80 84 79 87 91 78 75 74 95 97 97 96 89 84 86 93 98 99 99 99 99 99 99 99 99
99 100 96 71 62 60 58 47 54 60 64 62 64 68 73 77 74 85 75 67 62 73 78 76 78 70 69 95 96 97 97 97 98 98 97 84 98 98 96 96 96 97 98 98
99 99 99 99 85 67 66 76 75 79 68 66 63 64 68 75 74 72 75 74 65 70 78 66 63 66 79 81 90 93 96 96 96 97 97 97 96 96 97 96 93 90 91 96
99 99 99 98 97 95 76 57 59 57 55 57 59 63 68 76 77 75 72 67 74 68 75 73 73 77 80 79 81 84 86 93 88 93 89 96 96 96 96 96 95 94 94 92
98 90 100 98 94 95 78 62 60 60 56 56 55 56 65 70 77 74 68 72 70 68 70 70 71 74 82 83 84 83 94 94 81 88 96 95 95 95 95 96 96 85 84 91

GFSNGP_sfc_rhum_093.txt.gz
RH
95 80 94 95 83 85 100 88 84 64 63 48 46 43 39 41 40 45 45 62 64 67 74 78 83 83 81 77 77 75 77 78 78 75 73 74 75 77 78 79 81 77 81 85
98 88 96 86 80 81 81 85 85 80 74 46 42 51 47 47 45 43 41 42 56 64 69 73 81 82 77 78 78 75 77 79 78 77 78 82 85 88 89 91 90 88 88 88
94 99 99 99 93 83 67 68 77 92 66 49 52 50 49 46 45 45 44 43 43 56 65 66 72 71 75 77 78 79 80 80 79 79 83 87 89 93 94 94 92 93 92 90
96 99 97 63 60 63 67 56 58 61 58 52 51 50 52 48 46 43 43 44 44 47 65 66 66 66 70 74 74 80 83 83 82 83 87 92 93 94 95 96 95 96 95 97
99 97 78 51 49 72 77 70 59 61 55 51 49 55 60 62 62 64 62 58 56 51 56 69 65 63 67 73 76 80 82 84 84 84 91 93 94 95 98 100 100 100 100 98
95 97 86 58 52 44 46 63 62 54 56 55 65 67 68 69 63 66 70 68 66 63 55 73 70 64 68 73 77 79 84 85 84 86 90 93 94 98 100 100 100 99 98 94
90 96 82 53 49 50 59 59 68 68 73 78 81 75 68 67 69 74 76 70 69 72 74 69 75 64 70 79 80 80 83 85 86 90 93 94 99 99 99 98 97 95 93 88
88 99 95 56 56 61 62 61 62 67 79 79 75 66 66 70 72 73 74 74 85 89 91 90 82 70 80 82 87 85 87 88 90 93 92 96 98 96 96 94 93 92 91 86
99 91 85 77 64 63 60 57 57 74 80 72 66 67 64 68 71 72 74 81 87 90 89 89 85 82 86 90 88 90 90 92 94 96 97 97 98 99 97 90 88 87 84 80
82 66 65 85 63 62 69 66 61 58 63 70 69 69 70 66 70 72 72 77 85 88 90 89 88 84 88 88 88 88 92 94 96 96 97 94 94 94 93 90 87 85 82 77
82 62 71 72 52 65 72 72 74 63 53 72 76 72 72 78 68 68 72 73 78 86 88 87 87 90 90 89 88 92 94 96 96 93 94 98 95 92 92 84 80 82 79 71
73 67 69 68 52 63 63 72 74 75 64 75 76 74 79 71 70 68 66 70 78 84 85 85 86 88 88 88 89 91 88 89 90 92 94 96 97 96 86 84 80 81 76 69
67 64 68 64 60 59 74 76 73 76 73 78 81 79 84 84 81 78 84 83 79 80 78 80 86 86 83 77 78 81 87 91 89 90 97 98 98 99 99 93 86 85 84 78
81 76 77 58 67 66 72 79 77 74 76 77 80 87 82 84 81 84 88 89 86 84 81 82 86 85 89 92 92 93 94 92 95 97 97 98 97 98 97 97 98 98 89 86
95 90 80 61 73 80 81 85 86 82 81 81 80 81 75 83 86 84 81 82 88 90 91 90 92 95 86 88 90 91 94 96 97 97 98 96 98 98 97 97 96 97 99 94
83 84 83 72 70 75 82 85 89 79 80 84 77 72 72 75 80 81 79 82 89 95 94 94 95 92 90 91 91 94 95 92 92 98 98 99 99 99 99 98 98 98 99 97
92 88 84 80 87 87 82 77 78 82 80 75 75 75 76 79 79 83 84 84 94 97 98 97 98 91 87 91 95 95 96 96 90 98 98 98 98 98 98 99 99 98 98 99
84 89 94 96 94 92 90 84 80 77 76 74 76 80 87 89 94 94 91 91 97 94 92 95 93 94 92 95 96 95 97 97 97 98 98 99 98 98 99 99 99 98 98 99
86 91 91 91 93 93 91 90 88 82 82 85 84 85 80 79 80 87 90 90 91 93 94 88 86 90 95 90 92 98 99 99 99 99 98 98 99 99 99 99 98 98 98 98
97 97 96 95 97 96 97 98 97 98 99 99 70 69 71 75 82 89 86 88 89 94 91 87 92 94 94 90 84 97 99 99 99 99 99 99 99 99 99 99 99 99 98 98
99 99 99 99 99 99 99 98 97 81 64 65 69 74 77 75 83 83 88 91 85 86 86 83 90 93 91 89 85 80 93 95 92 98 99 99 99 99 99 99 99 99 99 99
99 99 99 98 94 66 52 59 64 69 71 73 69 65 63 68 80 88 83 79 84 74 85 89 95 82 88 83 98 93 80 81 83 88 92 94 97 97 98 96 97 98 99 99
95 86 73 67 70 68 56 50 58 60 66 68 66 63 65 68 72 77 82 81 81 75 85 88 75 69 72 96 98 98 98 98 98 94 93 92 84 89 92 91 93 97 98 96
98 94 97 89 73 59 57 52 49 56 61 62 64 68 69 74 74 86 77 67 61 70 76 77 78 65 69 95 97 97 97 97 98 98 98 84 98 98 97 98 98 97 96 95
98 99 99 99 99 94 77 79 75 74 62 63 62 64 68 74 69 74 73 72 63 68 74 67 60 65 80 83 91 93 97 97 97 97 97 98 98 97 97 97 97 95 94 95
99 99 99 99 99 99 99 97 79 60 58 57 57 61 66 72 77 76 74 68 71 69 74 71 71 75 79 80 83 84 87 96 94 97 92 97 97 97 96 96 97 96 95 94
98 88 99 98 97 96 97 97 86 70 60 61 60 57 61 66 74 74 70 69 70 67 68 69 70 70 80 82 84 84 96 97 88 94 97 97 97 97 96 96 97 96 94 89

GFSNGP_sfc_rhum_096.txt.gz
RH
90 86 98 99 96 97 100 90 88 72 71 53 43 46 46 46 45 49 50 64 66 66 73 86 88 88 89 90 90 86 87 89 90 85 78 79 77 77 74 75 76 78 85 87
88 84 87 88 95 96 97 91 81 88 82 50 41 49 67 57 49 49 46 53 62 64 69 76 86 86 87 88 88 85 87 87 83 82 84 84 86 87 89 89 87 87 88 89
87 80 93 93 84 90 88 87 89 97 70 55 62 54 54 54 51 48 47 47 48 58 66 74 79 80 84 84 85 86 86 86 84 84 86 90 92 93 94 94 93 92 92 92
94 97 98 72 63 71 77 67 66 71 68 60 54 51 56 59 54 48 47 47 49 52 54 70 72 78 82 82 80 84 87 86 86 88 90 93 94 94 95 96 95 95 94 96
97 96 86 58 54 76 80 71 66 65 60 58 57 64 63 64 64 72 63 60 62 62 59 60 74 73 78 81 81 83 87 87 89 89 93 94 95 96 98 100 100 100 100 99
92 97 85 66 54 50 58 68 70 67 64 62 59 69 61 74 68 69 72 73 72 70 69 64 76 75 76 81 81 82 85 87 88 89 92 94 95 97 100 100 100 99 98 97
93 99 82 77 66 56 71 59 68 73 76 75 79 68 68 69 73 78 77 74 78 86 86 82 83 75 78 85 82 81 87 88 89 91 92 93 99 100 99 97 98 99 96 91
93 99 94 92 77 81 80 69 60 71 82 80 73 69 68 74 77 75 78 81 88 90 91 91 87 77 84 85 88 89 88 89 91 94 92 96 98 98 96 93 96 97 94 92
93 85 89 88 92 67 76 73 76 73 76 76 69 69 68 72 78 78 82 86 89 90 89 92 88 86 90 92 89 90 91 92 93 95 96 97 98 98 98 96 94 93 93 93
89 74 59 95 90 88 77 79 79 79 69 70 71 70 73 70 73 75 77 82 88 88 89 92 91 87 87 82 88 88 92 94 96 97 98 98 97 95 96 95 93 90 90 89
85 66 80 79 64 65 77 72 76 79 79 67 76 78 75 81 77 70 73 77 85 89 91 92 92 92 91 90 89 92 94 96 97 96 97 98 95 93 93 86 85 88 87 85
76 72 73 68 60 51 63 74 81 86 84 78 78 79 86 78 72 71 69 75 81 87 86 88 90 91 91 90 90 93 95 96 93 94 96 96 97 97 87 86 84 83 81 81
78 78 75 70 66 58 79 82 74 81 83 85 80 81 82 85 81 81 88 84 85 85 83 79 81 81 82 86 82 84 88 92 93 95 98 99 99 99 99 92 86 86 85 86
86 94 96 77 70 62 65 78 76 79 82 78 83 87 87 86 86 88 90 90 89 87 85 87 89 92 87 91 91 91 91 90 95 97 98 98 97 98 98 98 98 97 90 88
87 90 95 90 80 72 80 88 92 89 88 80 83 89 84 83 85 83 84 90 92 94 95 95 95 95 94 90 91 92 94 96 97 97 97 96 98 98 98 98 98 96 99 94
86 84 86 88 77 73 84 82 91 93 81 85 78 78 81 80 80 79 82 89 91 98 96 96 96 96 93 94 93 94 95 92 92 98 98 99 99 99 99 99 98 98 99 98
94 90 91 92 92 88 88 86 86 94 84 77 76 75 77 79 81 87 89 95 97 99 95 94 98 97 95 94 95 95 94 94 88 97 99 98 98 99 98 99 98 98 98 98
93 90 87 94 96 96 93 86 84 84 87 81 77 82 85 86 94 95 94 97 94 93 93 92 94 92 89 92 96 97 99 98 98 98 98 99 99 98 99 99 99 98 98 99
94 91 92 90 93 93 92 90 90 88 89 91 85 85 82 79 82 93 91 93 94 92 94 88 86 91 94 87 92 97 98 99 99 99 99 98 99 99 99 99 99 99 99 99
97 97 97 98 98 98 98 98 97 98 98 97 99 99 97 85 84 93 87 88 89 92 90 90 90 92 93 91 83 91 97 98 99 99 99 99 99 99 99 99 99 99 99 99
99 99 99 99 99 99 99 99 99 97 94 88 94 91 82 77 85 89 92 91 84 86 86 85 91 93 92 90 88 89 86 88 90 95 97 98 98 98 98 98 98 98 98 98
97 99 99 99 98 91 54 55 63 74 81 73 67 64 68 70 87 89 83 83 82 75 83 87 94 81 89 85 96 96 97 96 94 92 88 88 84 85 84 87 88 87 94 95
95 89 75 66 68 70 64 55 52 57 63 66 64 60 60 62 67 84 89 81 79 75 82 85 76 68 73 93 95 98 97 98 98 99 99 99 99 100 100 99 98 96 95 95
93 91 91 95 98 86 67 55 52 48 56 57 61 65 69 74 75 84 76 72 69 71 78 79 78 65 69 91 96 97 98 97 98 98 98 81 98 99 98 98 98 98 98 96
96 97 99 99 99 99 99 98 95 87 62 58 58 60 65 71 67 69 84 72 64 68 72 65 62 63 76 81 92 94 97 98 98 98 97 98 98 98 98 98 98 97 98 97
99 98 99 98 98 98 99 99 98 98 97 94 60 57 61 67 74 78 76 70 70 69 75 70 68 71 77 77 81 82 85 96 96 97 94 98 98 98 98 97 97 98 97 98
99 89 98 95 95 96 96 96 98 92 79 70 62 57 57 61 69 72 72 70 71 71 69 70 72 69 76 81 83 82 94 97 89 96 97 98 97 98 97 97 98 97 97 95

GFSNGP_sfc_rhum_099.txt.gz
RH
88 87 90 96 97 98 100 84 86 74 67 50 42 43 43 52 52 52 52 59 63 64 66 79 84 88 90 90 92 90 89 90 90 90 88 88 87 86 81 82 83 83 86 86
97 72 87 93 80 91 98 98 92 92 90 59 46 53 54 52 53 52 49 46 51 63 68 70 82 87 90 92 92 90 91 91 91 91 90 89 87 88 89 90 90 89 90 89
88 78 94 92 83 75 77 86 93 98 72 59 67 68 65 57 58 55 51 48 48 51 64 71 76 80 89 92 92 92 91 91 91 90 90 91 91 92 93 93 92 92 92 92
98 94 92 60 64 70 73 76 83 86 76 62 56 51 53 58 59 57 53 50 50 54 57 59 75 81 87 91 92 92 92 91 90 89 91 93 94 94 94 95 94 95 94 95
96 93 79 61 64 78 89 79 73 76 67 64 61 65 62 60 60 62 71 67 67 70 70 68 66 80 90 91 92 91 90 88 89 89 92 94 95 96 98 100 100 99 99 99
90 98 96 85 83 70 68 73 71 75 76 71 65 77 67 68 71 76 81 76 77 75 72 72 69 84 91 90 89 87 84 85 88 90 91 93 95 97 100 100 100 99 99 98
97 99 84 94 91 72 74 72 82 73 80 77 74 64 66 70 79 81 79 78 85 89 90 86 87 86 90 91 86 82 87 90 90 92 93 93 98 99 100 99 99 98 98 97
92 99 93 93 79 80 87 80 83 88 84 86 78 74 72 75 79 79 82 85 90 91 91 92 92 90 92 91 90 91 90 92 94 94 92 94 98 99 98 98 97 95 95 97
87 80 87 93 87 74 82 85 85 93 88 81 74 67 69 74 82 81 85 87 89 92 91 93 92 88 91 93 92 90 92 93 94 95 96 98 99 99 99 97 96 96 96 96
89 82 74 90 94 88 84 90 86 82 87 87 82 75 76 73 75 78 81 87 90 90 91 94 95 92 89 92 83 82 86 95 96 96 98 98 98 97 98 98 97 95 95 96
85 75 91 89 72 65 61 80 79 85 86 88 88 85 80 78 77 75 78 81 90 92 93 95 94 95 93 85 81 85 88 94 95 96 98 99 98 96 96 88 88 91 93 92
75 71 76 72 65 67 68 65 79 84 83 85 86 88 86 77 77 76 76 79 85 90 88 91 92 94 93 91 86 87 92 97 98 98 98 97 98 98 87 86 85 85 83 87
83 89 91 88 81 73 71 75 77 79 85 90 86 88 82 80 80 80 84 85 89 90 90 88 85 88 86 88 88 88 91 94 96 96 98 98 99 98 99 93 90 88 87 85
81 87 92 90 84 85 83 71 78 87 84 89 87 89 89 89 91 88 89 91 89 89 91 94 95 97 95 94 92 91 91 88 94 97 98 98 98 98 98 99 98 97 89 89
87 85 81 91 92 75 69 84 90 95 91 89 82 88 87 92 94 95 90 94 94 96 96 94 94 96 95 94 92 92 95 97 97 97 98 96 98 98 98 98 98 98 96 94
84 85 81 90 89 80 88 89 87 88 94 86 80 82 84 80 78 78 85 91 91 98 98 97 98 98 96 96 95 94 95 91 91 97 98 98 99 99 99 99 99 99 99 99
97 84 93 90 94 89 97 90 89 91 92 78 77 79 79 77 80 86 96 97 98 97 91 96 95 94 90 94 98 98 96 94 88 97 98 98 98 99 99 99 99 99 99 99
91 91 92 89 93 96 94 90 88 90 94 96 91 87 87 88 92 92 97 92 90 92 88 92 92 94 89 86 94 98 98 99 98 98 98 99 99 99 100 99 99 99 99 99
89 95 92 92 93 96 94 95 96 95 94 93 92 96 98 93 92 97 93 97 97 93 91 88 85 90 93 89 92 89 98 99 99 99 99 98 99 99 100 99 99 99 99 99
96 97 97 98 98 99 99 99 99 100 100 100 100 100 98 98 98 99 92 85 87 90 91 90 89 92 93 90 81 93 91 96 98 99 99 99 99 99 99 98 99 99 99 99
98 98 99 99 99 96 95 91 96 95 86 77 91 93 94 90 83 84 88 90 84 88 88 85 90 94 93 88 88 91 90 89 88 93 94 93 93 94 95 95 96 96 97 99
94 96 99 97 95 88 63 56 60 69 79 86 85 64 70 70 79 87 85 90 85 76 84 88 93 84 90 85 97 98 98 97 98 98 97 97 97 97 98 99 99 97 96 96
94 90 78 73 77 78 72 67 54 55 56 62 64 63 60 62 67 82 86 80 80 76 82 84 81 69 73 94 98 98 97 98 98 98 98 99 98 100 100 99 98 99 99 98
94 90 89 88 96 98 96 70 71 58 56 56 57 61 66 67 70 78 82 74 73 73 78 78 80 67 71 91 96 98 98 97 98 98 98 82 98 98 98 98 98 98 98 98
96 96 98 99 99 98 99 99 99 98 94 92 88 60 59 67 64 60 85 79 68 70 78 66 65 64 76 79 86 88 93 96 97 97 97 98 98 98 98 98 98 97 98 98
99 97 96 96 90 86 87 94 97 99 100 98 97 98 82 62 70 72 76 74 70 69 78 75 71 69 76 76 76 80 82 91 92 94 94 98 98 98 97 97 97 97 96 97
99 96 98 97 95 96 97 96 98 96 93 93 88 89 95 60 63 67 71 76 76 73 73 72 70 70 77 77 81 83 91 96 90 98 98 98 98 98 97 97 97 96 96 96

GFSNGP_sfc_rhum_102.txt.gz
RH
74 81 89 92 88 86 100 97 97 80 68 51 47 48 51 66 52 54 56 56 62 60 61 70 79 82 87 88 92 91 91 91 90 91 90 89 90 91 90 86 84 87 90 91
91 81 85 86 83 83 88 93 98 99 94 68 53 61 56 54 59 60 58 51 48 51 65 68 74 81 87 90 92 92 92 91 91 92 92 92 92 91 89 90 91 91 91 91
94 74 87 94 86 82 80 88 83 94 79 70 77 74 74 62 59 60 55 52 50 50 51 62 70 77 84 90 92 93 92 92 93 93 93 93 92 92 93 93 92 93 93 92
97 93 91 67 66 72 76 73 72 88 82 73 79 69 60 62 64 60 58 56 53 55 60 61 66 77 84 90 93 94 93 93 93 93 93 94 93 93 94 95 94 95 94 96
93 91 77 69 82 73 92 99 78 83 76 74 67 74 71 64 65 66 67 66 69 76 78 77 74 72 87 92 94 94 94 93 93 92 94 94 94 95 97 100 100 100 98 99
95 97 97 90 88 86 81 97 84 88 89 89 74 89 72 64 70 68 74 78 80 80 82 83 80 80 88 92 94 94 93 93 92 92 91 93 94 98 100 100 100 99 100 99
98 99 80 78 87 82 81 77 86 88 92 95 95 72 67 68 70 73 80 80 87 90 92 89 90 91 92 93 93 89 92 92 93 93 92 93 98 99 99 99 98 98 98 98
92 94 91 91 83 80 86 88 90 93 91 94 91 82 69 75 80 76 78 83 87 92 92 93 92 94 93 94 92 92 92 92 93 94 93 94 98 98 99 98 99 98 97 95
87 83 76 87 87 86 89 91 89 92 90 91 91 84 79 75 82 81 85 88 90 92 92 93 94 92 92 91 93 93 93 94 95 95 96 98 98 99 99 98 98 98 98 98
88 84 83 83 96 80 73 87 89 88 92 87 95 91 93 75 78 80 80 88 92 91 93 95 96 95 92 93 92 92 91 91 96 96 99 99 98 97 98 99 99 98 98 98
86 76 86 92 76 78 74 72 74 84 86 84 92 91 93 82 79 80 79 84 90 92 95 96 95 95 94 92 90 90 87 91 93 95 97 97 96 96 97 94 88 94 96 97
76 72 76 77 74 81 87 81 75 83 90 80 88 93 92 89 82 79 81 84 83 89 90 92 94 95 94 90 83 85 91 92 93 95 94 95 98 99 87 85 84 84 84 89
78 92 93 92 93 90 86 84 80 73 78 91 84 84 93 81 85 83 87 88 90 92 94 94 93 88 92 88 85 86 90 93 96 97 98 99 99 98 98 93 88 88 88 87
85 88 94 92 89 88 91 81 79 90 93 90 92 83 87 88 88 88 94 92 89 89 94 95 96 98 97 93 92 92 92 89 95 97 97 98 98 98 98 98 98 97 92 92
82 86 84 78 89 89 75 80 92 89 92 91 87 88 88 87 92 95 96 94 94 95 94 91 95 99 97 95 93 93 96 97 97 97 97 96 98 98 98 98 98 98 97 94
76 85 79 83 92 93 92 92 94 91 90 92 81 82 87 84 80 82 90 92 93 97 97 98 97 97 97 97 96 95 95 90 93 97 98 99 99 99 99 99 99 99 99 98
94 90 81 82 86 81 96 90 89 91 92 86 85 82 78 78 81 86 93 96 98 93 92 97 96 92 90 89 92 98 99 96 88 98 98 98 98 99 99 99 99 99 99 98
92 90 92 94 92 96 96 92 92 94 96 94 92 91 90 90 94 94 97 91 92 88 84 90 91 91 90 89 90 95 98 98 99 99 98 99 99 99 100 99 99 100 99 99
92 92 92 92 95 97 97 97 97 98 97 98 97 99 99 99 99 99 98 99 99 97 88 87 83 87 92 88 92 86 98 98 99 99 99 98 99 99 100 100 100 99 99 99
90 96 97 98 98 99 99 99 99 99 99 100 100 99 96 96 98 99 96 97 93 84 88 89 88 92 93 91 83 95 88 95 97 98 99 98 98 98 97 94 96 97 98 98
98 97 98 99 98 94 88 86 85 89 88 83 85 88 90 92 88 87 94 94 84 86 88 85 92 94 94 89 90 93 93 93 94 94 94 93 92 91 90 90 90 91 95 95
93 96 98 95 92 84 67 65 59 62 71 77 77 72 66 72 72 84 83 89 87 76 84 88 94 86 93 84 98 98 98 98 98 98 98 98 98 96 97 96 96 96 96 99
92 88 80 77 82 92 95 73 64 54 57 58 63 65 66 61 65 71 70 74 79 80 82 84 79 74 74 97 98 98 98 98 98 98 98 98 98 99 99 98 98 97 98 98
94 88 86 87 86 96 98 95 76 72 60 62 66 62 67 70 65 67 71 72 74 72 81 79 79 68 70 93 98 98 97 97 98 98 98 83 98 98 98 98 98 98 97 96
95 96 96 98 99 98 98 99 99 99 98 97 95 96 97 66 65 58 70 77 71 74 84 73 66 67 81 81 86 85 87 90 93 92 93 97 98 98 97 95 95 95 98 97
96 95 92 92 94 85 86 90 90 90 96 97 98 97 98 98 79 71 78 76 77 74 79 78 74 74 78 76 77 76 79 86 90 94 94 97 97 98 98 97 96 96 95 97
97 96 96 97 94 96 96 96 99 97 94 96 93 87 91 96 96 96 95 90 81 87 87 81 75 70 74 76 77 79 86 90 86 96 97 97 98 97 97 97 97 97 97 97

GFSNGP_sfc_rhum_105.txt.gz
RH
84 79 81 77 86 90 96 90 99 84 70 56 51 43 48 51 50 50 49 47 47 52 55 58 65 73 78 79 81 80 80 79 79 77 75 74 73 72 71 69 70 72 73 74
92 69 81 89 78 77 86 78 84 89 86 70 63 54 49 51 54 54 54 52 49 48 48 55 57 64 74 80 83 81 82 81 80 78 77 77 78 80 77 78 78 77 76 79
92 78 87 90 73 81 81 83 84 94 75 68 74 72 77 70 58 56 55 54 52 49 49 51 56 62 64 74 82 84 83 82 81 80 79 80 80 79 81 81 81 81 83 82
94 90 89 86 74 75 88 93 90 84 77 77 76 69 70 69 63 60 59 57 55 51 56 56 56 61 68 77 84 88 86 86 85 84 85 85 83 83 84 83 84 86 90 94
92 87 76 81 88 85 88 98 96 96 87 88 79 74 72 58 63 62 58 62 66 69 69 68 67 65 68 76 84 88 88 87 86 85 86 86 89 90 98 100 100 100 96 93
94 98 91 77 84 86 85 95 95 94 96 95 82 90 75 70 66 65 68 71 72 75 76 77 77 79 74 76 84 87 86 87 86 85 85 88 90 95 98 99 100 98 98 95
97 98 75 63 82 83 89 81 86 88 92 94 96 88 80 75 67 69 70 74 80 82 83 83 84 85 86 84 84 82 88 89 88 87 89 88 96 97 98 97 96 96 95 92
86 92 84 87 81 82 78 86 82 86 87 92 91 85 84 82 72 74 77 80 82 85 87 87 88 89 91 91 86 88 88 89 90 89 86 90 96 96 96 95 95 95 94 90
82 76 64 91 86 86 90 94 92 93 88 87 88 88 87 91 75 75 78 82 86 89 90 90 91 91 92 87 88 91 90 90 89 88 88 91 96 96 96 95 92 89 88 90
91 82 85 78 94 75 70 75 74 82 88 91 89 86 89 87 84 78 78 84 88 88 91 91 90 92 92 88 88 88 88 89 90 90 94 95 94 94 94 91 89 88 90 92
90 79 78 93 78 74 79 84 81 76 76 88 88 80 90 90 88 77 77 83 86 89 92 94 91 91 90 88 86 89 89 89 89 89 95 95 90 90 87 83 83 87 89 92
72 69 66 74 77 86 92 86 81 82 82 80 84 88 90 86 80 75 75 78 83 86 89 92 92 94 89 84 82 84 89 90 92 93 92 92 92 96 88 87 87 84 84 87
66 80 85 88 90 91 87 86 85 85 82 80 84 89 88 86 81 80 80 87 90 92 92 89 91 88 88 87 84 86 89 91 92 92 94 98 98 98 98 93 87 87 88 87
90 90 92 91 87 85 90 85 81 85 84 93 94 92 86 88 90 89 93 91 88 89 92 90 92 96 94 88 89 89 91 91 91 94 97 98 95 97 96 96 98 97 92 92
88 85 87 90 88 90 90 92 94 89 89 90 88 88 90 92 93 95 96 94 95 94 92 90 94 96 93 92 92 92 94 95 94 94 96 96 97 98 98 98 98 96 96 94
85 76 90 79 87 91 84 94 94 91 93 86 82 82 86 90 87 89 92 93 93 94 93 96 96 94 90 94 95 95 93 90 91 97 97 98 99 99 99 99 98 97 98 98
95 93 84 78 80 79 94 91 94 94 92 93 91 86 78 78 82 89 93 95 93 91 91 94 93 90 87 86 91 93 96 93 89 97 97 98 98 99 98 99 99 99 99 98
90 88 86 87 86 80 94 95 96 96 97 97 92 92 93 91 92 93 95 93 95 97 90 88 87 87 84 89 90 89 96 98 98 97 98 99 99 98 99 99 99 99 100 99
87 78 93 91 92 94 97 97 97 97 96 97 98 99 99 99 100 99 99 98 98 98 97 91 81 81 84 86 87 82 89 98 98 99 99 98 99 99 99 99 99 99 99 99
84 80 89 97 98 98 98 98 97 96 96 93 96 99 98 96 96 98 97 98 98 90 84 83 82 83 87 86 83 89 85 87 95 96 98 97 96 95 96 95 94 94 93 92
86 87 94 98 99 94 93 77 73 79 82 86 83 79 79 82 87 85 89 89 79 82 86 83 86 87 88 84 85 88 88 88 89 88 88 89 88 87 87 85 86 87 88 87
98 97 96 94 96 86 74 76 69 59 60 64 68 70 67 64 69 78 78 83 86 76 84 86 84 83 88 82 90 90 90 91 92 92 93 92 92 91 92 89 88 87 87 89
93 92 85 76 77 89 95 95 73 60 59 62 63 63 65 64 66 67 62 66 82 79 87 85 83 76 75 87 90 92 93 93 93 93 93 93 90 92 91 90 90 88 90 88
92 92 88 86 95 89 94 93 93 89 89 81 71 70 82 84 72 64 69 66 68 74 76 78 75 68 68 85 90 92 91 91 93 93 90 82 93 92 92 89 89 88 89 89
84 94 96 98 98 98 99 99 97 98 96 94 94 96 96 97 93 68 75 81 71 74 81 75 71 68 79 83 86 86 88 91 92 88 85 89 90 92 90 89 89 88 91 92
94 91 90 87 88 88 92 95 98 98 90 93 95 97 95 96 98 97 87 95 96 94 91 88 85 78 80 81 77 77 80 82 81 82 88 88 91 92 90 90 90 89 88 91
95 90 93 95 96 96 97 96 98 97 94 96 97 94 91 90 88 88 92 95 94 96 96 96 96 91 89 85 81 75 77 80 79 85 87 90 91 92 89 90 91 91 93 92

GFSNGP_sfc_rhum_108.txt.gz
RH
55 51 56 64 62 56 86 70 94 78 91 52 46 47 35 37 39 39 39 37 35 37 37 40 43 49 55 56 58 57 58 59 61 61 61 63 64 63 60 57 54 54 56 58
80 57 66 65 51 58 60 61 67 62 70 47 40 45 45 41 43 42 42 39 38 36 35 41 41 45 54 57 60 59 59 60 62 61 62 63 61 60 58 59 59 59 60 62
71 64 88 85 68 65 68 67 73 84 60 58 60 56 53 50 49 48 46 44 42 38 36 36 39 45 46 51 58 61 60 61 63 61 61 62 62 62 66 67 66 66 66 65
77 75 73 69 58 67 75 86 89 87 88 79 68 61 56 50 52 47 45 44 42 40 45 46 44 42 48 55 57 65 62 63 63 63 63 63 64 66 67 67 68 69 72 79
74 58 56 63 68 67 68 90 96 96 88 80 69 60 60 56 51 47 47 47 49 49 50 50 50 49 49 49 55 62 66 66 64 63 64 65 70 74 81 92 96 94 80 81
77 65 51 61 63 67 68 68 84 94 86 83 71 72 69 69 61 56 52 51 54 54 53 52 55 57 57 50 51 56 59 67 67 65 66 69 75 82 80 91 99 87 84 72
62 63 40 39 58 65 77 64 71 76 86 88 88 86 76 74 68 67 67 63 59 57 58 60 61 63 62 60 60 55 63 71 72 72 75 75 92 86 92 92 90 84 78 69
66 78 54 46 63 62 61 68 67 72 73 76 77 77 71 70 74 64 68 71 69 67 69 70 72 72 70 72 69 66 66 71 75 75 76 78 81 86 82 80 80 81 78 73
53 41 47 64 62 62 68 71 63 62 60 64 68 63 72 74 70 66 63 65 66 72 77 76 74 75 76 72 70 71 69 72 73 71 69 73 85 90 87 82 81 76 69 72
69 53 53 57 66 64 56 55 59 56 57 55 61 62 59 78 70 68 62 66 68 68 69 71 72 74 73 71 69 70 69 70 70 71 70 72 79 88 84 85 72 68 71 76
64 58 58 55 60 58 57 62 61 56 58 58 56 60 59 66 75 70 63 67 68 70 74 76 71 72 71 72 69 70 70 72 73 73 79 85 80 82 82 76 68 68 73 78
37 44 40 55 53 62 66 63 60 65 63 61 61 58 56 64 76 72 68 71 72 75 79 73 70 72 76 78 72 69 76 80 83 85 87 88 87 92 86 87 86 89 89 89
39 48 52 60 65 65 62 61 61 65 65 70 66 64 64 67 82 77 73 75 80 82 76 71 71 73 76 73 78 82 80 89 88 86 90 93 91 94 98 97 92 92 88 86
54 64 72 70 61 61 68 66 72 74 77 83 75 69 72 75 86 84 82 82 81 82 78 72 74 77 75 74 79 76 78 91 89 96 96 98 96 94 98 98 99 99 92 88
66 65 64 64 66 67 69 73 82 82 84 85 77 76 81 87 88 88 91 89 90 92 92 90 81 81 78 78 79 79 79 80 78 80 88 93 94 96 97 97 97 96 96 96
67 69 68 73 66 71 70 76 88 87 88 85 84 82 80 84 89 90 92 92 92 89 88 88 87 85 81 82 84 84 80 88 84 88 89 92 96 98 99 99 98 98 95 93
73 83 84 73 69 67 80 81 89 91 90 89 89 86 80 78 81 85 86 90 90 86 78 81 82 77 79 75 80 85 82 84 88 89 88 89 93 96 97 98 98 98 97 97
63 63 60 55 62 68 76 87 91 91 95 94 95 95 94 91 91 89 93 94 98 97 96 93 96 83 71 76 78 76 84 89 94 91 95 97 96 97 99 99 99 99 99 99
71 72 74 71 74 74 77 84 84 90 87 92 94 96 98 96 98 99 99 98 98 98 99 99 100 93 82 81 78 74 76 86 96 97 98 98 99 99 99 99 99 99 99 99
76 72 73 80 83 91 84 89 87 87 88 77 75 84 88 85 87 89 88 89 94 97 95 90 87 77 72 75 78 76 76 74 84 93 97 99 98 97 96 97 98 96 95 94
74 81 85 83 91 96 86 72 57 52 48 59 61 56 54 51 53 62 64 58 51 70 74 76 74 70 74 74 74 74 77 74 74 81 86 88 88 85 82 83 83 84 83 81
76 80 83 92 89 84 63 59 54 50 45 46 49 51 50 51 48 52 52 55 52 74 72 72 72 76 76 81 83 79 78 79 80 81 82 80 80 78 78 77 78 77 77 78
90 87 81 75 63 58 77 80 74 54 53 61 65 66 68 67 60 59 56 49 62 68 70 72 74 80 82 86 84 84 81 79 77 76 76 79 77 78 74 74 74 76 77 74
89 82 76 74 76 76 78 77 85 89 92 93 90 84 84 89 82 74 69 62 63 65 68 69 70 77 80 88 83 85 85 81 79 81 75 75 80 80 79 76 78 74 76 77
79 88 89 90 86 77 92 93 88 83 77 75 77 77 78 76 89 80 70 81 92 87 70 74 72 72 69 79 81 74 72 78 83 78 73 80 79 81 79 79 78 77 78 81
79 76 76 77 79 80 78 79 75 74 76 76 71 72 73 73 75 78 80 83 84 87 88 92 92 83 79 76 73 69 64 67 70 71 75 78 81 83 83 80 78 78 79 80
85 83 86 87 86 83 80 78 78 73 73 73 75 73 78 76 75 75 74 70 76 80 84 90 94 95 94 92 86 80 71 71 72 78 81 85 82 84 82 79 79 79 80 80

GFSNGP_sfc_rhum_111.txt.gz
RH
48 46 49 53 54 46 80 67 87 56 62 53 45 41 41 34 36 37 37 36 34 34 34 36 45 50 52 55 56 58 60 60 64 63 65 69 73 72 69 66 63 61 62 65
78 52 55 53 41 42 49 53 56 55 55 40 45 43 45 41 40 42 41 39 37 34 32 35 38 45 52 55 56 53 56 59 61 61 64 67 69 70 66 66 64 64 66 70
65 55 82 85 56 58 59 58 70 75 54 57 56 52 52 52 48 46 43 41 40 37 36 37 39 42 42 49 55 55 57 58 59 61 63 65 64 64 68 67 65 67 69 70
71 75 74 60 53 59 59 69 75 73 80 81 64 56 52 49 49 45 45 43 42 42 43 44 41 39 40 49 52 62 60 62 62 62 64 65 66 68 69 69 72 75 77 78
71 44 46 51 54 58 60 70 92 93 74 64 60 53 64 61 57 52 49 47 46 46 46 46 46 46 45 42 46 53 61 63 63 64 65 67 73 76 82 94 95 89 82 81
69 60 42 46 55 55 57 66 73 90 78 75 62 68 79 68 64 58 57 54 53 51 46 45 49 50 52 49 45 46 50 59 63 65 66 71 77 83 83 95 100 86 82 76
50 57 32 42 48 54 71 71 65 66 73 74 77 79 75 66 66 63 63 66 64 56 53 55 58 60 59 55 56 52 52 58 66 67 74 74 92 84 87 90 82 78 77 70
48 62 53 42 57 60 55 55 55 61 66 70 62 59 65 65 66 68 65 68 68 68 64 66 67 67 68 69 66 64 63 63 69 71 74 79 83 84 81 74 77 76 74 72
42 39 42 40 48 50 52 53 56 55 53 50 53 52 50 52 64 63 58 58 60 63 71 74 68 69 74 70 65 65 64 63 67 71 73 77 83 85 80 74 71 71 71 72
55 38 41 49 53 51 55 50 50 49 49 48 50 47 48 47 52 66 62 59 61 62 63 65 65 66 67 69 65 65 65 64 66 70 72 72 77 84 79 74 71 70 71 75
45 39 49 47 45 51 53 53 53 49 49 52 53 52 47 48 49 66 64 60 61 64 68 69 65 66 67 69 67 68 67 68 69 68 72 74 76 82 76 71 68 68 73 81
28 32 36 45 45 50 53 53 52 54 53 50 54 58 53 48 48 68 70 66 68 70 71 68 66 66 69 70 71 69 72 72 73 79 84 86 85 90 84 84 84 86 83 85
31 35 39 44 49 53 54 51 52 54 57 61 64 60 56 54 54 77 78 74 76 80 73 67 68 70 71 72 71 81 87 85 88 89 88 90 87 92 99 98 94 96 95 95
35 46 57 58 54 52 54 56 59 65 65 71 80 60 59 63 65 86 82 79 74 75 74 69 67 70 70 72 73 75 77 90 83 90 95 97 97 98 98 99 99 99 94 92
45 44 47 50 54 55 58 62 76 71 74 76 73 72 72 79 88 90 89 88 90 88 89 89 85 80 76 74 78 77 76 80 81 83 91 95 98 98 98 99 99 98 99 97
51 55 58 62 58 58 61 65 76 75 80 83 83 81 78 78 87 89 90 92 96 94 88 87 88 87 85 86 82 80 79 87 83 90 93 94 94 95 97 98 99 99 99 98
62 71 68 71 64 59 61 66 71 78 86 85 87 85 85 77 76 80 84 86 87 87 86 87 82 79 75 68 71 75 79 79 86 93 92 94 97 98 98 99 99 99 98 96
48 51 56 55 55 57 65 70 81 81 88 87 85 90 95 93 96 97 95 97 94 92 92 93 98 99 84 77 76 71 73 77 86 90 94 98 98 97 98 99 99 99 99 99
54 55 53 50 52 58 68 73 77 79 78 79 81 84 92 91 89 91 93 93 92 93 87 99 97 95 88 81 84 80 76 74 83 92 97 98 99 99 99 99 99 99 99 99
63 61 62 63 71 74 76 80 80 80 81 74 65 65 68 66 66 70 71 76 75 81 95 89 87 85 78 75 81 82 86 80 79 82 97 99 99 99 99 99 99 99 99 99
69 68 71 80 85 87 80 74 71 59 42 44 48 44 45 44 42 43 47 48 46 69 77 78 75 73 73 73 73 75 74 79 79 81 92 97 97 97 96 95 94 96 96 95
66 71 77 74 85 84 73 58 49 47 42 44 50 56 60 66 63 60 52 52 53 61 71 72 72 73 75 74 83 81 79 83 86 92 92 87 88 87 87 88 91 90 89 89
75 74 78 77 80 71 58 66 70 57 55 61 70 76 77 76 76 81 81 62 61 61 70 71 72 75 77 80 82 80 83 82 87 86 90 91 89 87 85 84 86 87 90 88
89 83 78 69 60 64 68 65 72 81 85 85 85 82 84 82 76 74 75 77 73 64 65 67 70 73 74 79 82 85 82 85 86 90 86 74 88 87 87 88 89 87 87 83
89 86 86 85 83 76 85 91 88 86 72 68 70 70 73 71 78 75 76 78 80 83 85 78 76 76 73 73 80 83 81 85 90 88 87 90 87 86 85 85 87 87 88 88
84 74 72 76 73 74 76 78 71 65 66 64 62 66 68 71 72 73 71 74 79 80 81 83 83 85 88 84 85 78 74 74 78 78 79 84 86 87 86 85 82 82 82 86
80 76 77 81 82 80 75 70 65 61 64 63 63 64 69 65 63 65 64 64 67 70 76 78 79 84 85 89 91 92 88 73 71 78 81 86 88 89 85 86 84 83 84 85

GFSNGP_sfc_rhum_114.txt.gz
RH
62 52 56 63 59 54 87 74 91 74 69 58 59 60 59 50 48 48 50 49 48 48 51 57 67 70 71 74 76 77 83 85 86 82 85 90 91 83 78 74 70 67 67 68
92 58 65 65 48 49 52 58 71 67 69 66 55 51 62 60 56 57 54 48 47 46 48 51 56 62 69 72 71 71 74 81 82 81 83 89 90 82 76 75 72 71 72 74
82 72 90 90 66 64 62 54 69 75 80 82 76 61 60 67 61 57 56 54 55 55 58 59 56 55 63 70 69 70 73 74 75 78 82 85 85 83 78 75 74 77 80 80
94 90 90 72 62 64 65 68 78 82 81 72 62 66 71 75 71 67 61 58 59 63 62 60 58 59 57 62 71 74 75 75 75 77 81 82 82 85 85 83 81 81 84 86
93 88 59 58 58 70 72 75 84 88 85 76 68 69 78 77 76 75 73 70 68 63 59 60 65 65 63 60 57 69 75 79 77 77 80 82 86 89 90 97 95 92 91 93
92 84 68 71 66 61 66 91 84 89 85 86 82 86 87 78 75 78 71 75 77 72 65 69 68 69 70 68 65 62 64 74 79 79 81 87 90 92 95 99 99 96 94 92
88 83 57 61 62 64 90 80 80 81 80 81 85 75 84 73 77 78 73 70 75 78 77 80 79 80 82 83 84 81 78 72 80 83 86 89 93 95 98 99 95 95 94 92
72 80 78 59 69 81 72 71 68 73 74 75 75 68 67 67 70 71 78 73 73 82 85 83 83 84 87 90 85 81 81 80 81 87 89 93 95 96 97 96 95 95 94 93
59 66 52 60 65 66 64 66 71 71 67 64 62 59 58 63 66 71 68 72 74 80 82 84 81 83 88 88 84 83 84 85 84 89 93 94 96 96 96 94 94 93 88 85
62 52 58 56 65 63 67 68 60 59 63 61 63 62 61 58 60 73 73 75 71 74 82 86 84 80 83 78 78 82 87 86 84 82 86 90 90 95 92 90 88 83 79 81
62 54 70 58 59 64 63 62 64 62 62 63 64 65 65 64 61 66 82 69 69 77 86 85 82 82 83 82 84 85 82 78 77 78 84 87 87 88 95 88 80 78 86 91
63 47 56 65 58 59 64 65 63 65 67 61 66 68 59 68 62 71 87 78 75 76 81 79 78 86 86 85 87 92 90 86 84 87 89 89 91 94 87 85 83 85 84 84
43 54 55 59 62 61 63 60 60 66 70 76 72 76 70 59 67 82 89 82 82 86 80 74 74 77 80 81 84 89 91 93 93 90 93 94 94 98 99 96 91 92 90 90
51 61 71 68 74 65 60 61 65 81 80 80 81 74 70 65 68 89 90 86 80 80 80 79 76 78 78 79 82 82 83 88 92 97 98 98 99 98 98 99 99 99 96 96
51 56 60 64 64 65 67 72 84 75 66 80 79 78 77 85 90 95 92 91 91 92 91 90 88 86 86 87 91 91 92 95 96 96 97 96 98 98 99 99 99 99 99 97
54 65 67 71 70 70 72 81 80 70 73 75 85 85 85 80 85 90 90 90 96 96 91 88 88 87 83 84 83 87 88 88 87 95 96 97 97 98 99 99 99 99 99 98
67 81 80 83 76 72 74 76 72 75 77 77 81 88 91 90 84 82 85 86 87 88 86 87 84 85 87 76 80 80 86 85 78 94 97 97 98 99 98 98 99 99 98 97
63 65 70 74 73 70 77 74 80 81 82 77 82 82 86 90 93 96 97 98 98 97 93 91 94 99 98 86 85 83 84 87 91 96 97 98 98 98 99 99 99 99 98 98
62 65 69 63 64 68 76 75 79 80 77 78 79 82 82 87 87 91 87 87 88 88 90 97 92 95 96 93 89 91 91 90 94 97 98 96 99 99 100 100 100 99 99 99
69 68 65 75 75 76 72 71 82 85 83 91 81 75 77 74 68 68 72 82 83 87 89 88 89 93 94 88 78 94 95 95 97 98 99 100 99 99 100 99 99 99 99 99
78 79 82 83 81 84 81 80 82 90 82 68 64 60 58 59 58 57 61 66 58 74 79 84 90 92 90 83 84 92 92 93 95 97 99 99 99 99 99 99 99 99 99 99
81 84 91 92 95 94 92 83 67 58 54 53 57 67 71 74 77 80 73 68 69 62 77 89 92 84 89 76 97 97 97 96 98 99 99 99 99 99 98 99 99 98 96 97
87 88 89 84 80 78 78 76 75 65 63 67 76 83 89 93 94 96 96 82 83 80 85 85 79 72 74 92 98 96 96 97 97 98 99 98 98 98 97 96 94 93 95 94
87 83 79 77 78 73 80 82 86 90 87 88 94 92 93 96 94 91 92 85 79 82 89 92 90 75 70 96 96 97 96 96 97 98 97 82 97 96 95 94 93 93 91 88
86 85 91 89 88 90 91 97 97 98 95 89 84 84 86 89 92 92 92 93 85 87 85 81 83 82 82 94 95 96 97 96 96 97 97 98 96 95 94 93 92 91 91 91
93 93 93 92 91 92 94 96 98 95 93 84 80 86 86 88 89 89 90 82 87 84 93 88 77 78 81 85 96 96 97 96 91 90 91 92 94 96 94 93 92 90 91 92
88 82 95 95 94 93 92 90 88 80 80 79 78 79 85 77 74 72 68 75 76 79 90 92 94 86 73 76 78 91 97 97 92 93 90 90 92 92 92 93 93 92 92 93

GFSNGP_sfc_rhum_120.txt.gz
RH
72 69 66 71 63 58 80 83 88 81 88 91 93 89 88 77 75 72 72 70 72 73 72 66 64 75 82 80 82 92 95 94 97 99 99 99 99 96 95 96 98 98 98 98
87 72 82 71 61 58 58 67 72 80 84 91 87 91 92 90 81 81 78 77 75 74 76 75 83 74 72 84 82 85 92 94 93 96 96 96 93 90 86 81 79 81 82 84
86 81 81 66 68 56 78 72 76 89 78 90 84 81 95 94 91 89 86 83 83 84 83 84 83 80 79 76 85 82 82 84 87 90 95 95 93 91 89 86 81 82 83 81
94 82 44 36 70 72 78 71 79 88 91 87 85 86 92 92 94 93 87 88 89 91 86 87 89 86 84 78 74 85 86 83 83 85 90 92 92 91 89 88 88 90 89 86
86 95 57 72 74 82 83 66 75 82 87 84 85 89 90 90 90 91 90 87 90 92 88 91 92 93 91 90 89 87 87 86 88 85 87 89 91 92 93 96 96 93 92 91
95 83 57 45 68 72 66 72 80 83 87 88 89 99 94 88 88 87 87 85 87 88 89 91 92 92 92 94 92 92 89 88 87 90 88 88 90 92 93 94 96 98 93 90
95 95 68 50 76 73 74 22 89 86 87 89 91 88 82 86 80 83 85 84 86 88 91 92 91 90 92 92 94 92 90 90 89 89 92 91 91 93 94 97 95 94 93 89
90 89 49 75 80 64 53 87 87 89 87 88 84 84 77 74 72 75 82 84 85 87 90 91 91 90 92 93 93 93 92 92 91 91 91 95 93 94 95 97 97 96 96 97
63 56 42 74 60 70 76 81 85 87 84 81 82 76 64 67 73 70 79 87 83 86 87 88 90 91 92 92 93 94 93 93 92 91 93 95 95 96 98 98 98 98 98 98
54 45 56 59 70 73 72 72 76 79 76 71 70 68 70 71 71 71 69 86 84 83 86 88 90 90 92 93 93 94 94 94 92 89 90 92 91 93 96 95 96 96 98 98
70 60 63 55 68 75 77 71 69 68 67 67 70 72 72 76 76 75 74 84 87 86 87 88 89 90 90 92 93 95 95 95 90 84 92 94 94 94 94 90 86 89 90 90
43 42 41 42 60 76 77 73 71 70 71 69 68 70 74 77 71 77 77 87 90 89 87 86 79 82 85 90 91 92 95 94 96 94 92 91 95 95 91 91 90 91 88 87
37 47 56 75 81 79 74 75 74 72 71 72 78 80 82 86 64 72 91 93 91 88 90 86 78 78 81 82 84 88 93 92 93 95 97 98 97 98 99 91 92 93 92 92
55 66 76 75 73 76 73 72 70 71 74 82 85 88 86 77 80 86 91 95 92 86 82 82 86 84 84 85 87 87 87 87 94 94 98 98 97 99 99 99 99 97 93 96
51 54 54 68 77 76 74 79 83 86 88 90 91 89 88 79 86 89 88 92 95 94 92 91 90 87 83 83 85 85 88 92 93 95 96 96 98 98 99 99 99 99 97 95
54 64 72 73 76 76 79 87 87 89 90 88 84 83 93 93 89 90 90 89 93 96 91 90 88 84 83 85 83 82 82 81 80 91 95 96 98 99 99 99 98 99 99 98
75 83 84 82 80 76 76 77 80 85 85 78 71 76 80 81 82 87 93 96 97 97 94 96 93 86 87 88 91 98 97 94 81 94 96 98 94 96 98 98 99 99 98 97
44 47 55 60 70 73 83 87 89 86 84 76 74 82 84 80 82 80 80 86 87 90 91 92 94 93 91 93 95 98 97 97 96 96 95 93 94 98 98 98 98 98 98 98
51 58 64 70 67 70 77 85 87 87 81 76 80 86 84 84 86 85 91 95 94 92 76 89 90 88 91 86 88 90 98 97 96 96 97 87 88 88 92 95 98 98 98 98
67 69 71 77 76 75 81 84 86 88 85 81 87 92 94 91 89 83 70 68 68 72 73 81 87 93 94 94 91 97 95 96 96 96 97 96 92 87 84 84 87 96 98 98
72 79 82 81 82 85 83 85 86 88 86 86 91 93 82 71 65 66 75 86 85 83 77 75 85 90 93 89 92 95 95 95 96 97 97 98 98 97 96 95 94 97 98 98
79 82 86 87 88 92 90 88 87 86 86 90 92 75 65 74 86 88 89 93 92 77 87 94 95 88 91 80 97 98 97 97 98 98 98 98 99 99 98 98 99 98 99 99
83 85 89 88 89 90 92 90 89 87 90 80 64 63 79 89 94 98 94 88 95 92 93 95 85 75 77 82 88 91 92 93 96 98 98 98 97 98 98 97 98 98 99 99
87 88 89 92 92 93 96 91 86 76 69 63 66 80 93 98 94 95 96 86 81 85 90 91 86 73 70 93 84 90 93 94 95 96 97 93 98 98 98 97 97 96 97 94
86 90 92 93 93 93 94 92 94 93 91 96 96 93 92 93 89 93 94 90 78 78 84 72 69 71 91 93 93 78 75 80 90 95 97 97 97 97 97 97 97 96 97 97
92 88 88 90 90 92 93 93 96 99 98 94 90 93 94 93 90 87 83 69 75 70 86 88 85 83 89 93 94 93 80 68 68 76 85 94 97 97 97 97 96 95 96 95
94 89 91 95 95 94 95 94 96 98 92 82 82 88 86 76 73 72 69 77 76 78 92 93 94 90 89 93 95 94 96 93 82 79 83 94 96 97 96 96 96 96 96 96

GFSNGP_sfc_rhum_123.txt.gz
RH
73 72 72 71 69 58 83 87 86 81 89 91 92 91 91 92 84 82 83 82 80 82 85 83 80 74 74 84 89 91 93 98 99 99 98 99 99 99 99 99 99 99 99 97
84 72 82 80 64 63 58 68 73 82 83 86 90 92 93 93 91 92 92 90 88 84 87 88 93 88 78 80 90 89 94 97 97 97 97 97 96 97 98 98 98 98 98 99
74 81 74 54 58 59 72 76 75 90 76 89 86 91 94 94 94 94 92 92 94 94 93 93 94 94 92 87 89 89 89 90 92 95 96 95 94 93 93 90 86 86 86 88
89 79 33 30 68 70 76 77 75 82 88 87 88 92 93 93 95 93 92 87 91 94 92 93 93 92 93 92 92 90 90 90 91 89 91 93 93 94 94 92 90 90 89 86
82 94 49 60 80 81 82 67 78 81 83 87 86 92 91 89 91 92 92 88 90 92 92 93 93 94 93 91 91 89 92 93 92 92 91 90 91 92 94 98 98 93 92 90
95 66 35 32 74 77 64 46 68 79 82 87 90 98 92 88 88 86 87 86 88 89 91 91 93 93 92 93 93 94 94 93 93 92 92 92 91 92 93 93 95 97 93 92
94 92 58 46 79 71 51 15 82 83 82 89 92 87 81 86 83 83 85 84 86 89 92 93 93 92 93 93 95 95 94 94 92 92 92 93 93 93 93 94 95 94 94 93
92 92 32 75 81 59 40 84 84 86 84 88 86 84 82 76 78 76 84 86 86 87 90 90 91 91 92 93 94 95 94 93 94 93 93 96 95 95 94 96 96 96 95 95
60 46 37 78 67 68 70 77 84 85 84 85 85 84 79 70 76 72 71 82 86 87 88 89 90 91 91 92 94 95 93 94 93 92 93 95 95 95 96 97 98 98 98 98
52 43 55 51 63 73 74 77 79 82 82 86 84 80 72 72 74 76 73 72 87 87 87 88 90 91 91 92 93 94 94 95 94 92 92 92 92 94 96 95 95 95 96 97
69 55 57 52 58 56 76 76 77 78 79 79 78 74 75 76 78 78 78 77 87 89 90 88 89 90 89 91 92 94 95 96 96 94 88 88 91 97 97 92 90 92 92 92
41 36 30 27 51 57 75 78 75 74 75 73 73 74 73 77 79 78 79 82 89 91 90 89 87 87 86 84 89 92 93 96 96 96 93 92 93 92 88 91 92 92 93 94
27 39 45 55 72 75 78 80 77 75 74 75 74 72 76 82 85 79 82 92 94 92 91 91 87 86 86 84 85 88 93 95 96 95 97 97 96 98 98 91 86 89 92 94
46 61 57 71 52 72 80 77 74 77 75 74 77 85 86 90 84 84 82 90 95 94 92 88 84 86 87 85 86 86 86 86 92 94 97 97 97 99 99 99 98 97 87 88
41 47 34 62 73 81 82 82 84 81 81 88 88 89 91 89 85 86 91 89 91 93 95 93 92 88 84 82 84 84 82 86 89 91 95 94 97 98 99 98 98 98 97 93
45 49 52 60 69 80 83 85 82 80 87 90 94 94 93 93 91 91 93 91 93 95 94 94 93 90 86 88 90 86 87 88 86 93 95 94 96 96 92 93 93 97 98 98
56 66 75 76 72 74 78 74 71 75 83 90 92 91 92 84 83 86 89 95 95 94 93 93 94 95 95 96 93 97 99 97 87 96 96 90 86 88 88 88 93 97 98 98
39 34 46 47 56 62 74 76 78 82 83 85 85 88 86 85 86 82 82 84 87 89 91 89 91 94 91 91 89 86 89 98 97 96 96 93 87 82 84 89 93 94 91 97
49 47 48 50 56 60 66 76 80 80 86 82 88 91 86 85 81 81 85 94 96 94 73 78 85 91 93 90 86 84 89 98 97 96 94 90 96 92 81 81 81 79 81 85
63 59 58 64 71 68 75 77 81 87 85 88 90 91 90 89 92 93 94 86 70 75 76 78 82 86 89 91 87 97 98 97 96 96 96 96 98 97 96 90 89 92 81 84
69 71 73 78 80 78 78 83 85 88 90 89 89 88 89 92 87 76 70 82 85 85 83 76 88 93 92 88 91 96 96 96 97 98 98 98 98 98 97 97 97 96 94 97
77 83 82 83 86 90 90 86 85 90 90 92 90 89 90 76 71 80 83 89 92 79 91 95 96 91 86 77 90 90 90 98 97 94 96 99 98 98 97 97 98 96 97 98
87 86 89 88 86 89 94 91 89 88 90 91 90 87 71 71 91 95 97 90 95 92 94 95 90 78 74 92 95 97 98 98 96 92 89 94 97 98 98 97 97 97 98 97
89 90 91 89 92 90 94 94 92 91 90 88 85 69 76 96 99 97 95 86 79 84 89 88 78 67 67 97 98 97 97 98 87 90 82 83 94 97 97 97 97 96 97 95
94 95 96 93 91 87 91 94 93 90 82 77 78 89 94 94 84 94 94 87 71 75 76 70 68 70 84 93 97 98 98 96 93 81 85 94 93 95 96 97 97 96 96 97
96 94 94 90 86 91 88 87 88 88 91 97 98 96 96 96 94 88 78 71 73 72 86 90 85 83 91 92 94 96 96 96 93 93 85 86 86 91 94 96 96 96 96 96
97 94 98 97 96 94 89 87 89 94 92 89 90 96 92 81 73 71 69 75 76 79 94 96 96 91 90 92 93 94 95 94 85 87 90 92 93 94 93 94 96 95 96 97

GFSNGP_sfc_rhum_126.txt.gz
RH
74 71 76 76 72 66 85 86 85 78 86 81 86 90 92 92 92 91 92 90 89 88 88 86 88 83 79 86 83 86 93 97 99 98 98 99 99 99 99 99 99 99 99 99
88 70 80 81 71 68 61 68 78 79 85 78 89 89 90 92 94 94 94 92 94 92 91 91 95 94 88 84 89 81 82 85 90 93 93 94 93 95 95 97 98 98 99 99
69 79 76 50 51 64 65 70 74 90 73 86 88 91 91 92 94 95 95 91 93 95 95 95 95 96 95 94 88 85 85 84 88 90 93 96 96 95 95 92 89 92 94 95
88 72 23 27 66 64 65 72 76 78 80 86 86 88 90 92 95 92 93 90 91 94 94 95 94 94 93 93 93 92 92 91 90 93 90 89 94 94 94 94 95 93 92 91
84 90 35 62 74 82 77 49 77 81 81 86 89 94 91 88 90 92 93 90 91 92 93 93 94 94 92 93 94 94 95 94 94 94 93 92 92 93 94 98 99 95 94 93
94 56 28 21 73 80 72 26 51 80 82 89 91 98 87 89 88 87 87 88 88 89 91 92 94 92 92 94 94 96 96 96 94 93 93 94 95 94 94 94 96 96 94 93
94 85 46 37 76 74 47 13 73 81 80 90 93 85 79 86 85 83 84 88 88 90 93 93 93 91 92 92 96 97 95 94 93 94 95 96 95 95 95 96 95 95 95 94
92 91 26 57 82 52 26 71 78 84 82 87 86 84 86 83 82 75 80 86 88 88 90 91 92 91 92 92 95 95 94 93 94 93 96 96 94 95 95 96 96 96 96 96
52 38 28 78 58 66 53 68 80 82 81 83 86 87 84 80 78 72 71 77 87 89 88 88 90 91 90 92 94 95 94 94 94 93 93 95 96 96 96 96 96 96 94 94
51 46 51 46 55 78 70 74 73 80 78 86 83 85 85 79 75 76 75 75 81 89 89 89 90 90 91 92 93 93 94 95 95 96 94 93 95 97 98 97 97 97 97 97
65 52 49 45 48 45 56 73 76 79 81 83 86 84 83 79 79 79 80 80 82 90 91 90 90 90 89 90 92 92 92 95 95 96 96 96 94 96 97 96 96 99 98 97
30 24 25 24 32 46 54 69 73 78 81 82 85 84 76 79 79 81 81 83 86 92 93 91 91 90 88 89 91 94 94 96 97 96 96 97 97 95 84 87 87 89 91 94
23 31 32 33 51 56 57 61 77 78 75 79 78 76 75 77 82 83 87 85 93 94 92 92 92 90 88 90 91 93 95 95 96 95 97 98 98 98 98 90 85 86 87 88
34 51 44 53 39 51 67 68 77 82 80 77 75 78 78 83 86 87 86 91 93 95 94 92 91 89 82 85 86 85 84 83 90 93 96 98 98 98 96 98 98 94 87 87
37 42 31 45 56 59 76 85 88 87 82 82 81 81 88 91 90 90 90 95 95 93 92 93 92 91 86 85 85 86 85 87 88 94 96 93 96 97 96 91 89 90 87 86
39 40 49 50 44 62 80 87 85 84 82 81 83 88 90 90 89 92 95 94 94 92 88 92 95 93 92 92 94 93 90 90 90 96 96 96 94 87 84 84 82 83 86 90
47 52 61 66 58 51 70 65 70 73 78 81 82 89 94 95 95 95 95 94 94 93 91 92 88 91 95 95 93 96 93 92 92 96 95 96 95 95 94 84 82 80 80 80
39 35 41 47 45 53 58 68 76 78 78 77 85 93 96 96 93 87 88 92 87 87 88 90 89 92 93 92 94 93 83 85 94 98 94 96 96 96 95 95 85 83 81 78
48 45 44 50 51 54 53 64 71 74 76 80 90 92 91 91 90 83 86 90 92 98 86 76 80 91 93 89 89 95 92 87 93 98 94 90 95 96 97 95 94 92 91 89
60 62 62 62 63 64 64 71 70 77 81 84 87 93 93 92 90 89 91 95 94 85 75 77 80 84 84 87 82 96 98 98 98 97 96 97 98 97 97 93 91 93 95 92
66 68 70 72 76 78 76 78 81 82 86 84 88 89 90 91 88 90 97 94 72 75 85 80 86 92 92 90 92 92 94 96 92 96 98 98 94 92 94 97 96 95 94 93
72 74 77 82 85 86 88 90 87 86 87 88 90 91 92 92 88 87 72 75 89 81 89 95 96 90 93 77 96 97 98 98 99 99 100 99 96 89 90 94 96 95 96 97
81 82 84 88 88 88 93 93 92 90 90 88 90 91 90 84 78 82 89 90 95 90 96 95 90 80 76 96 98 98 98 98 98 98 98 97 82 88 90 94 96 96 97 97
84 86 87 89 92 94 96 96 94 91 92 90 87 84 79 82 94 95 93 88 86 85 93 85 72 66 70 96 98 99 99 99 99 98 96 80 85 84 92 91 94 96 96 96
93 94 97 97 95 95 95 97 97 96 93 91 84 77 78 91 88 96 96 91 76 75 70 67 68 71 86 94 97 98 100 99 99 97 96 94 95 94 92 89 92 96 96 97
98 97 95 93 93 95 96 94 94 95 90 87 91 92 97 91 92 92 84 72 75 71 76 82 84 87 91 90 94 96 97 97 93 94 89 94 94 93 91 91 94 96 96 96
99 93 99 98 97 96 94 93 93 95 90 84 93 95 93 88 78 73 72 73 71 74 82 90 96 89 93 90 90 90 94 95 88 89 93 95 94 95 94 93 93 92 96 96

GFSNGP_sfc_rhum_129.txt.gz
RH
71 65 70 78 71 67 87 78 84 61 81 67 71 81 83 85 86 85 84 82 85 85 83 81 83 80 77 75 74 73 80 88 95 94 94 94 97 97 97 98 99 99 99 99
94 70 78 82 72 73 64 67 80 78 78 64 70 83 81 84 89 90 89 84 85 85 85 84 87 85 81 79 77 72 73 79 79 84 87 88 90 90 88 88 90 92 96 97
69 70 76 56 50 68 56 62 66 85 61 78 85 84 84 84 88 90 90 86 86 87 88 87 86 86 84 83 80 78 78 78 81 80 82 85 85 86 89 87 84 86 86 84
89 71 28 29 63 60 56 58 70 72 67 79 78 78 83 86 88 87 87 86 84 86 87 86 85 83 81 82 82 85 84 84 84 82 85 82 82 85 85 86 86 86 87 88
82 84 33 44 57 78 74 45 70 71 73 75 85 91 84 84 86 84 86 84 83 83 86 84 85 83 82 83 86 86 90 89 87 85 85 87 89 89 90 97 98 92 89 88
92 53 23 13 58 74 59 28 47 74 74 76 89 88 75 81 87 86 82 82 82 82 84 82 84 81 80 84 85 90 91 91 88 88 90 91 92 91 90 92 95 90 87 86
88 79 39 28 67 62 30 14 48 74 74 88 92 75 67 84 86 81 77 82 82 82 85 85 84 81 82 85 90 91 89 87 87 89 90 89 89 90 90 87 85 85 84 80
86 87 29 48 84 47 21 35 62 76 75 80 79 80 82 87 84 80 78 81 84 84 84 85 85 82 83 86 89 89 87 88 88 88 90 90 89 88 87 85 84 83 82 79
47 35 24 64 42 60 41 42 72 73 75 75 81 83 82 84 83 80 74 77 82 86 86 86 86 85 82 84 87 88 86 87 88 87 87 89 91 92 90 89 89 89 88 88
48 33 40 37 51 74 65 60 61 74 70 82 78 82 84 85 82 78 72 72 72 86 89 86 86 87 84 83 84 84 85 86 87 86 84 85 85 89 89 92 87 85 85 87
64 48 47 40 42 40 47 62 73 72 75 78 82 82 83 85 82 76 75 76 77 82 89 87 86 88 85 83 84 85 86 88 87 86 86 86 84 87 86 86 88 87 89 93
32 26 25 23 28 40 46 48 56 70 82 82 82 79 83 84 79 78 79 80 82 84 91 89 89 89 86 84 87 88 90 90 90 89 88 87 88 87 83 86 84 88 89 88
25 27 30 24 32 35 42 46 51 70 73 79 84 82 81 79 78 77 79 80 83 83 90 91 92 90 84 82 86 89 88 88 88 88 89 90 90 92 95 83 80 80 81 81
33 37 39 45 31 42 51 50 58 70 77 81 77 82 78 76 75 82 85 82 85 94 95 93 92 89 84 83 86 86 83 83 86 89 92 93 92 94 92 92 89 84 76 75
39 39 32 28 46 41 53 64 75 76 78 86 82 75 76 79 83 87 86 86 94 96 96 89 87 87 84 85 85 86 87 88 84 88 90 89 90 90 84 84 84 84 82 76
51 42 47 48 43 52 64 74 70 65 80 77 78 79 77 77 85 89 93 96 98 98 90 87 89 87 88 88 92 92 88 88 86 92 89 85 87 86 84 83 83 84 84 82
54 54 55 60 56 48 59 52 57 54 71 81 75 74 83 85 90 93 97 97 95 92 88 88 87 85 90 90 90 87 87 82 86 89 88 85 86 86 84 85 85 82 81 79
47 42 43 45 41 46 54 56 60 63 74 72 76 82 84 89 87 92 94 96 96 91 87 83 87 88 93 93 92 90 88 86 82 91 90 88 85 86 89 89 86 85 82 80
58 51 50 50 52 54 54 58 65 68 74 79 84 86 81 84 90 91 93 96 93 90 86 85 77 84 93 88 87 90 89 88 84 90 90 86 88 86 88 89 89 87 87 86
65 62 61 62 63 63 62 67 68 78 83 83 85 89 93 94 92 92 92 91 86 85 78 73 78 85 83 81 80 93 94 95 94 90 88 87 87 91 91 89 86 85 88 87
65 67 68 70 73 74 76 75 79 87 90 89 88 90 90 92 90 90 94 92 88 84 75 81 85 84 88 87 89 93 91 92 92 93 94 95 95 94 92 88 81 79 88 88
71 70 72 74 81 81 84 86 88 90 93 92 90 91 94 94 92 91 85 86 77 73 86 88 91 88 91 83 94 94 93 93 95 95 96 96 96 96 95 84 86 85 89 92
77 76 78 81 83 84 87 91 91 92 94 94 93 92 90 91 89 91 91 78 90 88 93 93 87 83 78 91 91 91 90 92 94 96 97 97 95 95 90 90 86 84 90 91
84 82 83 85 90 91 90 93 94 94 93 93 92 90 89 91 91 89 81 78 88 88 93 88 76 69 84 84 87 89 92 94 93 95 94 86 93 93 92 92 93 92 93 92
90 93 97 97 92 93 95 97 99 98 96 96 94 91 87 84 82 95 96 92 84 82 74 70 70 76 78 82 84 90 90 93 95 93 90 94 95 95 91 89 88 88 86 92
97 95 92 91 92 94 96 98 99 99 98 97 96 95 95 94 93 96 87 81 75 70 76 81 82 82 80 78 82 80 81 82 87 90 88 93 94 93 90 90 91 91 90 90
99 93 98 96 96 96 97 96 97 98 94 93 97 97 96 95 90 81 77 76 74 78 83 86 83 79 78 77 77 77 82 86 86 89 94 94 94 94 91 91 92 90 90 89

GFSNGP_sfc_rhum_135.txt.gz
RH
41 33 32 42 44 41 72 58 72 32 40 25 21 23 32 40 44 48 48 50 50 51 48 47 48 47 48 52 55 65 79 90 94 93 90 89 93 95 95 97 98 98 98 99
82 39 41 41 36 38 43 44 48 40 38 22 22 28 35 39 48 50 50 51 51 51 51 51 51 52 51 51 51 51 56 66 75 85 84 88 92 92 91 94 95 94 95 97
56 38 54 75 42 36 32 33 36 45 24 26 29 36 39 39 45 48 50 52 53 52 54 54 53 53 53 52 51 52 54 55 58 60 64 67 66 74 77 76 76 81 84 84
69 65 61 29 33 25 25 24 26 28 24 24 28 27 34 37 40 43 48 52 52 52 54 53 51 51 51 54 54 60 60 60 60 58 63 63 67 70 71 71 72 74 77 79
62 36 22 16 18 39 38 26 20 25 21 21 24 36 43 36 38 40 41 45 46 49 52 53 52 51 51 53 56 60 66 67 63 62 63 66 71 74 76 93 88 77 72 71
59 53 31 12 20 32 33 26 20 22 21 22 33 45 24 29 34 42 43 47 50 50 51 52 51 50 49 53 56 65 68 68 66 67 67 72 76 77 74 74 74 73 66 62
54 48 24 15 34 35 24 18 23 22 23 26 38 28 40 41 44 42 47 51 50 52 53 52 53 54 52 56 66 70 66 66 66 66 72 70 71 70 69 62 59 60 58 57
40 49 50 33 45 26 17 15 15 22 26 30 31 28 36 46 45 52 54 54 54 54 54 56 59 60 57 60 67 67 65 63 63 62 65 69 72 72 65 60 61 63 63 66
28 29 22 34 22 27 22 16 20 23 32 33 39 35 34 43 44 50 51 52 51 56 56 59 62 62 61 58 60 63 61 61 60 58 59 61 70 72 61 59 61 62 62 68
24 18 18 26 30 26 26 29 25 26 27 31 37 37 36 35 41 44 48 49 48 50 52 54 55 60 58 54 56 58 57 59 59 60 60 58 57 62 62 59 59 57 61 66
25 20 20 20 19 19 20 22 29 30 30 33 35 37 37 39 39 41 45 48 47 49 50 50 46 52 55 57 55 57 57 61 62 61 62 62 60 64 64 64 77 76 71 76
27 18 17 17 15 17 21 24 26 29 32 35 38 39 40 40 40 44 46 49 51 50 50 47 45 49 53 58 58 58 60 62 63 63 62 62 63 63 82 80 78 81 77 77
23 18 17 18 18 19 21 23 23 25 27 30 31 38 39 41 42 50 49 51 53 53 52 49 48 49 53 59 62 64 65 68 69 75 70 70 66 69 80 74 77 79 72 72
21 21 25 23 24 20 23 24 29 24 26 28 30 30 39 43 45 48 55 53 52 53 53 48 48 51 53 60 64 69 73 85 78 83 85 82 77 78 79 75 73 69 71 66
26 23 23 22 22 22 22 26 30 32 30 30 34 37 39 47 51 54 54 54 55 55 52 52 54 57 58 63 68 70 72 72 72 73 79 80 80 81 72 72 74 71 68 66
31 30 30 31 30 29 29 31 34 34 32 30 30 36 42 45 48 52 54 55 57 60 57 62 66 65 69 73 75 77 75 79 80 87 86 84 78 72 68 67 67 70 72 77
41 44 41 43 38 32 31 31 31 35 35 32 30 34 40 47 49 51 57 56 55 58 64 72 73 74 83 81 84 83 84 86 87 80 80 81 75 70 70 71 72 72 72 69
36 35 34 33 34 34 34 33 32 32 36 37 37 36 41 48 51 52 57 59 59 64 73 75 77 85 81 82 85 86 87 82 72 69 74 78 77 76 78 79 78 79 78 76
34 36 35 34 34 36 36 35 34 35 35 36 39 45 52 54 56 56 61 72 77 83 85 83 90 85 83 85 86 82 74 68 72 75 78 77 81 80 80 79 79 78 76 74
43 44 45 40 44 48 44 42 41 46 49 49 53 61 71 70 69 72 72 81 77 73 84 85 82 82 82 83 81 74 73 74 74 77 79 78 76 76 76 75 78 76 73 70
46 52 56 59 56 60 56 48 50 54 52 53 57 62 64 64 66 69 78 76 72 82 81 86 81 77 76 81 81 78 79 80 80 81 82 82 80 78 77 74 72 74 74 72
42 49 54 60 64 60 56 55 54 57 54 57 62 64 69 73 74 76 72 70 79 82 78 75 74 77 76 77 83 83 83 82 83 85 86 84 83 82 82 81 83 79 79 81
59 55 54 52 53 52 57 60 63 62 66 70 75 75 74 73 76 82 85 80 79 77 72 71 75 78 80 82 82 83 83 84 83 79 80 84 84 87 85 83 81 80 82 81
71 62 58 61 62 60 62 64 66 68 73 78 80 80 81 81 78 74 76 80 82 77 73 77 82 82 80 81 82 81 76 77 80 82 75 73 85 85 84 82 83 80 80 78
75 76 81 80 76 71 78 80 86 89 83 81 84 83 81 76 78 76 76 80 82 77 80 82 82 82 71 67 68 71 74 79 86 78 71 80 84 87 84 83 83 83 84 84
77 69 68 74 72 71 73 80 77 79 80 84 84 81 79 76 74 75 80 84 80 80 82 80 81 65 62 63 63 61 61 64 66 68 76 81 84 87 86 85 84 84 84 88
82 73 77 76 77 77 78 77 80 83 83 80 83 80 80 82 79 81 84 78 75 76 78 76 70 66 66 63 60 60 64 66 71 77 80 86 89 90 87 87 88 89 89 88

GFSNGP_sfc_rhum_138.txt.gz
RH
66 50 47 53 56 53 69 70 84 65 60 42 35 31 33 50 56 55 56 62 64 68 69 68 69 67 66 62 59 60 82 87 93 94 93 94 96 96 97 97 98 98 97 96
89 54 49 59 46 46 50 57 61 57 58 40 35 58 57 53 49 58 57 60 64 64 68 70 74 71 67 70 67 62 64 67 81 90 88 93 94 95 95 95 96 96 96 95
87 60 72 73 61 47 45 46 49 69 48 34 41 40 46 48 50 56 56 61 67 70 72 74 72 69 73 73 73 74 75 70 67 76 80 80 82 86 89 94 94 96 95 92
92 83 74 45 39 41 39 37 38 41 36 34 35 35 38 46 52 54 54 60 64 67 70 71 69 69 69 71 74 81 82 80 76 74 77 78 81 88 92 88 84 85 88 88
95 85 45 32 40 48 40 32 31 29 30 30 29 48 50 43 47 53 54 60 62 67 69 73 71 68 67 73 78 81 84 85 83 81 86 87 90 90 92 94 92 88 84 86
91 82 55 28 27 39 34 32 31 34 34 31 50 67 54 47 47 51 53 59 65 68 67 71 72 68 68 75 84 88 87 85 84 86 88 91 91 89 86 87 85 83 80 80
89 86 57 34 39 44 43 29 30 29 31 31 49 52 53 58 58 55 58 63 64 69 73 72 72 71 71 78 89 85 80 80 81 83 89 89 89 88 86 85 83 85 82 85
74 83 68 45 52 38 28 25 29 29 33 36 40 40 54 55 58 61 65 67 69 73 74 72 76 77 77 80 84 81 79 78 79 82 81 84 88 88 79 81 84 85 87 89
52 50 35 46 35 38 36 38 28 31 37 39 45 45 44 59 61 64 67 72 71 77 76 76 81 84 83 80 77 79 79 79 78 75 75 80 87 88 83 81 83 83 87 90
32 23 22 30 40 35 39 42 40 33 36 43 44 48 49 48 58 62 67 69 70 74 77 80 82 80 82 77 74 75 76 79 79 85 81 80 79 82 85 90 89 85 87 93
38 26 23 22 22 28 30 33 36 39 40 40 45 49 50 52 52 57 61 64 63 65 72 72 74 76 79 75 73 76 76 79 80 80 82 83 81 86 89 97 93 95 96 94
36 23 26 24 24 25 27 29 33 34 40 44 46 48 50 53 53 55 60 66 66 64 65 65 65 71 74 77 75 78 78 83 85 85 86 84 85 89 83 82 76 80 80 83
28 23 24 24 23 24 26 31 31 36 39 42 46 45 49 48 54 59 61 66 66 64 64 66 60 63 69 76 78 80 84 85 90 86 87 88 86 89 94 88 79 76 73 69
32 27 30 28 28 27 28 31 38 34 35 36 39 40 49 54 57 62 65 63 67 70 70 67 66 65 65 70 76 81 86 87 92 93 94 94 91 92 92 93 89 85 77 78
37 38 34 28 28 29 27 34 38 36 35 39 41 42 46 54 61 62 65 69 69 72 72 67 64 65 67 76 79 83 88 94 94 94 94 92 91 91 92 88 87 87 83 74
41 41 40 40 37 34 34 34 36 36 38 40 42 44 47 47 56 64 70 74 74 73 69 65 69 72 79 85 88 90 87 85 88 95 95 92 89 91 91 88 86 86 87 88
50 52 50 50 46 41 38 36 37 37 42 44 43 44 48 58 62 67 73 77 73 74 68 69 73 85 87 88 90 94 88 88 87 92 92 90 92 89 85 84 84 86 87 80
43 43 41 40 41 41 44 43 44 44 46 47 47 47 51 61 61 68 70 79 77 77 80 85 89 91 90 92 92 94 90 92 96 87 88 93 92 87 87 87 89 92 89 85
43 44 42 42 42 41 43 46 46 46 44 44 48 56 60 60 65 67 76 85 84 85 88 91 92 92 93 93 92 91 91 88 82 88 89 83 89 91 97 96 96 96 95 90
50 52 51 50 50 51 51 52 51 53 53 52 54 61 68 74 77 77 84 85 78 81 92 94 93 94 94 92 88 89 82 83 91 93 94 94 96 96 96 85 92 95 95 91
55 58 59 62 62 60 59 58 58 62 60 62 65 69 75 79 82 85 88 92 90 91 93 92 92 94 93 92 87 88 91 92 94 96 96 97 96 96 95 95 94 94 94 94
53 54 59 62 68 65 65 63 61 62 63 62 67 74 78 82 85 86 87 90 93 90 93 93 94 89 92 88 95 95 95 95 95 96 96 96 97 97 97 97 97 97 96 97
70 66 59 60 63 61 64 66 67 68 73 76 79 83 86 89 91 94 95 92 94 91 94 94 88 84 83 97 95 95 95 95 96 96 96 96 96 97 97 96 96 96 97 96
72 67 62 63 64 63 64 69 72 76 82 85 86 87 89 93 93 91 92 88 87 84 88 87 84 80 90 95 95 96 95 94 94 94 94 82 97 97 97 97 96 97 96 93
77 76 81 79 73 72 80 86 92 91 88 89 90 90 89 91 90 94 92 93 83 88 92 81 81 84 88 90 90 91 94 94 95 93 92 96 97 97 97 97 97 96 96 97
81 78 72 77 78 75 79 90 89 97 96 95 95 94 92 89 92 96 94 90 92 88 91 87 80 73 76 78 80 77 76 81 83 86 91 95 96 97 97 97 97 96 95 96
91 82 87 79 82 80 82 82 84 88 89 92 95 93 93 93 93 93 87 90 93 93 88 78 73 76 76 71 69 71 75 79 79 90 93 97 97 98 98 98 98 97 96 96

GFSNGP_sfc_rhum_141.txt.gz
RH
79 69 67 68 62 57 81 69 78 51 68 52 46 42 40 37 58 56 59 61 65 70 77 81 80 79 78 78 74 71 74 91 93 96 94 94 97 97 98 97 97 96 96 97
90 63 64 64 56 54 50 56 60 52 52 36 36 48 50 53 56 58 62 62 65 71 81 77 82 79 78 81 83 80 79 75 85 90 88 94 93 94 95 96 96 95 97 96
76 64 80 61 56 57 55 54 48 64 44 46 44 42 45 45 49 56 61 62 67 72 78 80 78 76 80 84 86 88 85 80 76 79 85 83 93 91 94 97 95 96 96 94
91 81 54 37 46 44 45 39 48 49 48 45 40 38 40 45 52 56 60 62 69 73 78 78 77 75 78 82 88 90 91 88 86 84 85 83 84 86 85 88 94 93 92 92
94 93 49 40 46 45 45 27 37 39 36 36 39 53 45 41 49 53 58 63 71 74 78 79 78 76 77 86 90 92 93 93 91 88 89 86 88 89 90 90 88 88 85 86
95 84 45 29 26 38 35 25 25 38 35 36 46 47 44 44 51 53 57 65 72 76 76 79 80 75 79 88 90 92 91 91 92 92 92 92 90 89 89 91 89 85 86 90
93 87 57 41 33 43 24 19 33 38 35 38 45 38 35 54 55 56 60 67 73 77 79 79 80 76 80 89 89 88 86 86 88 90 92 91 90 89 91 86 87 92 91 94
87 86 65 43 49 21 19 25 30 31 31 38 41 38 49 56 53 61 65 72 76 79 81 81 83 81 82 89 88 87 85 84 87 89 87 87 90 88 87 89 92 93 93 94
56 56 36 45 28 34 37 31 30 30 30 36 43 40 44 57 62 63 68 74 77 80 82 83 87 87 88 86 89 89 88 87 86 84 87 88 90 90 90 89 91 93 94 95
34 32 30 32 38 38 36 38 38 40 37 36 40 43 46 50 58 68 70 72 78 82 83 82 89 89 88 88 86 87 89 88 89 88 88 89 89 88 92 93 93 94 95 95
33 25 26 25 22 21 22 32 41 42 42 40 43 47 48 51 54 60 64 72 77 76 76 77 84 86 88 86 84 86 87 89 90 89 90 91 90 93 95 94 90 93 95 95
38 30 29 34 26 28 30 32 32 38 40 44 47 42 48 45 52 56 62 72 76 74 72 74 78 80 86 85 78 81 86 89 92 93 93 92 94 96 84 87 78 82 85 87
34 28 28 28 27 28 29 28 28 34 34 35 40 41 48 43 51 57 62 67 71 70 69 71 74 75 77 82 80 84 85 86 92 91 93 94 94 94 95 90 78 79 74 71
32 32 36 32 33 35 32 30 35 38 35 39 37 44 45 50 54 62 66 63 64 70 76 73 71 70 74 78 80 83 88 86 92 91 93 95 94 94 95 95 92 84 77 80
40 35 34 32 32 36 38 40 40 38 32 31 40 41 45 47 53 54 58 70 73 79 76 74 71 69 74 79 82 86 88 94 94 95 96 94 96 96 94 91 88 85 84 74
43 47 47 47 47 44 44 44 44 41 36 36 43 42 40 40 40 49 64 74 80 79 78 74 72 70 72 82 86 89 93 92 93 96 97 97 96 95 91 92 86 86 85 86
58 62 56 56 55 50 47 43 41 41 40 40 43 43 46 52 54 60 67 77 79 79 76 76 72 78 78 85 88 93 94 93 90 96 97 96 95 92 92 91 88 88 89 83
47 50 49 49 50 50 47 44 45 43 47 48 50 51 54 56 56 59 66 77 86 87 85 79 83 86 87 90 90 94 94 92 95 92 92 93 92 95 93 92 92 94 92 89
45 48 49 48 48 50 49 47 46 49 48 47 52 57 60 62 64 67 72 83 88 89 86 88 87 88 92 92 92 94 94 96 96 90 88 87 94 94 98 97 97 97 97 97
59 58 61 60 60 61 58 57 52 54 54 54 57 60 64 67 72 74 78 83 85 83 88 91 92 94 96 94 91 95 95 91 88 85 86 94 97 97 98 90 95 96 96 94
64 61 62 64 66 66 65 60 58 59 58 61 63 64 68 72 80 83 85 90 86 89 91 94 94 96 94 94 94 94 87 85 86 89 96 97 96 97 96 96 97 97 98 98
62 61 70 67 68 67 62 62 60 61 62 63 69 73 76 80 84 87 88 89 91 91 97 98 96 93 95 92 94 90 89 89 95 97 97 97 96 96 98 97 98 97 97 97
69 71 74 72 74 71 68 67 68 67 70 73 76 80 82 85 89 92 93 90 96 95 98 98 94 91 90 98 94 90 93 95 96 96 96 96 96 97 97 96 97 96 97 96
72 70 66 66 67 66 66 70 75 82 83 85 86 86 88 93 94 94 93 92 93 95 97 95 91 89 96 96 92 95 96 96 96 96 94 89 96 96 97 97 97 96 96 94
79 80 86 80 68 70 80 86 92 90 88 91 92 92 92 93 89 95 96 96 88 91 93 87 89 93 93 96 95 94 96 95 95 89 90 94 96 97 97 95 95 97 98 98
82 86 76 77 70 74 80 90 88 96 97 96 97 96 94 94 95 98 95 92 94 88 94 95 88 88 84 84 84 83 84 82 82 84 89 92 94 96 97 97 97 96 97 98
90 82 94 85 83 83 83 83 84 91 91 89 94 95 95 97 96 95 93 97 97 94 88 91 94 84 79 76 75 79 84 85 82 91 94 96 97 97 94 96 98 98 98 99

GFSNGP_sfc_rhum_144.txt.gz
RH
71 63 62 64 59 56 86 63 71 45 73 45 52 50 40 38 39 44 58 63 70 74 79 82 83 82 84 87 88 86 86 86 91 91 92 93 95 95 95 96 95 94 95 97
92 61 65 70 63 62 59 56 59 51 48 32 32 39 51 51 49 56 63 63 66 71 78 79 82 83 82 88 91 91 91 89 85 85 90 93 94 94 94 95 96 94 96 96
72 61 77 73 70 59 58 56 53 66 46 42 44 42 45 45 45 56 58 63 67 73 76 82 82 80 84 88 90 92 93 93 91 88 85 86 88 92 94 94 92 95 95 95
90 83 55 42 46 48 50 49 49 48 42 46 45 43 44 44 46 48 52 60 67 76 80 83 82 80 83 87 90 92 93 93 93 92 91 89 87 86 88 93 94 95 94 94
94 96 52 35 54 51 46 27 40 41 34 34 45 47 41 38 42 42 52 57 66 76 81 84 82 80 83 89 90 92 93 94 93 91 92 91 92 93 92 91 92 92 93 92
96 95 48 26 26 41 38 23 24 40 36 40 44 45 39 34 46 48 56 62 71 79 82 85 84 83 86 90 91 92 91 92 93 92 91 92 92 92 94 95 96 93 96 93
94 96 66 39 33 41 24 20 28 41 38 42 45 35 30 45 50 53 53 63 74 84 81 82 84 84 85 89 91 90 90 90 91 92 92 90 91 92 94 95 95 96 97 96
91 97 70 40 48 22 20 26 26 30 33 38 44 40 40 45 58 53 59 67 80 86 85 86 86 86 86 90 87 90 90 90 91 91 89 88 90 91 92 93 94 96 98 98
63 59 35 42 30 28 32 28 29 26 27 33 40 37 35 42 49 58 59 70 80 80 86 88 90 88 89 85 89 92 92 91 90 91 91 91 91 92 93 92 94 96 97 98
49 37 36 30 32 37 31 34 31 33 36 37 35 36 39 41 48 57 64 66 78 87 88 86 89 89 83 87 90 92 93 92 91 91 91 92 93 92 93 94 94 96 96 97
36 30 26 25 24 22 23 26 38 37 40 39 46 45 45 39 46 48 55 69 77 78 79 78 86 87 90 89 91 93 93 93 93 92 93 93 93 94 94 94 90 93 94 94
51 36 34 33 31 34 33 34 34 37 43 43 42 39 41 41 41 45 57 67 80 77 76 76 88 83 90 89 89 90 92 94 94 94 95 95 95 96 85 84 77 83 85 87
45 37 36 32 32 32 33 33 33 34 36 38 34 37 38 40 42 49 57 64 72 74 76 74 83 82 84 88 86 87 86 92 93 94 96 96 96 96 97 91 78 83 75 72
43 42 46 42 42 39 39 36 39 40 38 35 33 32 37 38 43 56 56 56 60 71 76 80 82 79 79 84 85 85 88 86 92 94 95 96 96 96 96 97 96 93 78 79
49 46 45 42 43 42 40 41 45 44 41 42 43 40 39 46 45 48 50 59 68 73 77 84 80 76 78 80 84 86 87 92 92 95 94 92 95 96 96 96 94 87 87 76
48 51 52 53 52 50 48 50 53 52 49 46 44 42 40 42 42 42 50 63 74 74 77 82 78 73 79 81 85 86 88 88 90 94 96 96 94 97 97 92 93 92 90 88
58 61 57 58 58 56 54 54 54 53 52 49 47 44 47 46 46 51 53 61 70 69 78 81 76 83 80 84 85 87 92 93 91 96 96 94 94 95 93 90 92 92 90 86
51 51 51 52 53 53 53 52 52 53 53 52 51 52 53 55 52 51 57 63 77 84 85 85 85 88 83 87 87 93 93 95 96 95 94 95 94 93 92 92 92 95 95 89
62 64 62 60 60 62 62 58 55 54 54 54 57 57 60 61 62 62 67 76 82 85 83 88 88 87 90 91 90 93 94 96 96 96 92 91 94 90 89 96 97 97 97 96
74 78 62 66 63 68 68 66 63 63 63 60 59 60 60 63 68 72 75 77 80 83 85 88 92 93 94 93 89 94 95 95 95 93 93 92 91 91 98 92 96 96 96 93
70 65 75 68 75 73 72 68 67 66 61 60 62 61 62 66 74 80 81 82 78 87 87 92 94 97 96 94 94 96 95 94 90 92 94 92 93 97 97 96 95 97 98 97
62 62 59 67 82 84 81 80 82 82 72 71 73 74 75 79 83 88 89 88 90 87 96 98 98 95 96 94 95 94 91 90 92 93 93 94 96 94 97 97 97 95 94 98
64 63 65 70 74 81 82 79 76 76 82 84 84 82 83 88 90 88 87 92 97 96 98 99 95 93 95 96 92 90 90 90 90 92 93 95 93 96 96 95 96 93 96 95
63 63 58 67 74 76 78 78 74 78 82 85 87 88 89 93 95 96 96 92 94 96 98 97 95 96 91 91 91 91 91 91 93 93 91 90 94 94 93 94 96 94 93 93
63 74 79 85 83 78 80 86 92 90 86 89 91 94 92 94 93 96 98 98 93 96 98 93 96 92 90 90 90 90 91 92 94 91 89 90 91 91 92 92 91 93 97 94
64 65 66 84 80 83 84 92 94 96 96 90 94 96 95 96 97 98 97 95 97 97 98 94 93 92 93 94 92 87 87 85 87 84 85 87 88 90 91 92 94 95 94 95
66 77 90 89 87 82 89 88 84 80 88 92 92 95 96 98 98 97 96 98 95 94 94 94 93 92 90 86 86 85 88 86 83 88 90 92 94 96 96 97 98 97 98 98

GFSNGP_sfc_rhum_147.txt.gz
RH
63 54 50 52 51 58 84 63 64 49 62 33 36 42 36 43 44 43 40 41 59 72 80 83 84 83 84 88 91 92 92 93 93 88 90 93 94 93 93 95 96 94 94 96
73 59 65 69 62 61 56 57 63 53 49 32 31 36 42 42 43 47 47 49 58 70 78 82 85 82 82 87 90 91 91 92 92 91 90 90 94 94 93 94 94 95 96 96
78 63 73 71 62 59 63 64 56 66 46 44 43 41 43 41 44 46 50 57 64 69 76 83 85 83 86 87 90 90 91 92 92 92 91 92 91 92 93 96 94 96 96 95
87 83 56 40 50 49 53 52 54 54 45 44 43 42 44 41 45 44 44 46 55 67 77 82 85 85 85 89 91 91 91 91 91 91 91 92 93 93 92 93 95 96 96 96
92 97 56 33 50 54 53 29 43 45 38 35 41 47 42 35 41 38 38 42 51 64 75 84 86 86 87 91 92 92 92 92 91 90 90 90 93 94 95 97 98 95 94 94
96 98 58 26 28 43 39 28 24 45 40 42 44 38 37 30 37 40 45 51 57 70 83 85 87 88 88 91 93 92 91 92 92 91 90 90 92 94 95 97 98 97 95 94
81 96 76 46 36 40 28 27 26 38 37 38 41 31 28 41 45 52 52 49 62 76 82 82 87 90 89 89 93 89 91 91 92 92 90 90 92 94 96 97 97 98 97 96
88 97 84 46 49 31 24 23 25 29 30 38 40 37 38 37 44 47 55 55 65 79 85 87 88 91 89 90 88 90 92 92 92 92 91 90 92 94 94 95 97 98 96 96
71 70 46 45 42 34 33 30 27 28 29 31 38 36 32 34 35 35 47 55 67 82 84 89 90 88 88 82 89 92 94 93 92 92 92 91 92 93 94 94 96 97 98 98
58 46 41 36 39 36 33 33 30 31 33 37 37 40 40 42 41 41 39 51 61 82 88 84 90 90 81 87 89 93 95 94 93 94 93 92 93 93 94 94 96 96 96 97
67 50 43 37 32 30 32 29 34 39 36 34 39 42 45 41 42 39 41 42 67 70 73 77 87 86 86 89 90 93 94 95 95 94 94 94 93 93 93 92 90 93 94 94
57 39 45 40 38 40 42 42 39 39 40 41 48 47 44 42 39 39 39 42 64 70 72 73 87 83 85 88 88 90 93 95 95 95 96 96 96 98 85 85 81 83 84 86
52 44 45 45 44 43 47 45 41 40 41 43 39 37 38 41 38 42 41 45 56 57 66 68 81 84 82 87 87 89 88 92 94 94 96 96 97 96 99 90 83 81 76 76
49 51 56 51 52 44 45 45 45 43 45 45 43 43 42 43 42 43 43 45 47 54 65 72 80 82 80 87 88 87 88 87 92 94 95 96 96 96 96 96 95 95 77 80
52 50 53 50 50 50 48 49 54 53 50 49 48 51 50 53 54 49 45 49 63 67 65 75 79 76 86 87 88 88 90 90 92 95 95 93 96 95 92 96 96 91 92 83
53 54 56 59 58 57 56 56 59 58 55 54 53 53 52 52 49 48 48 59 79 78 60 69 75 70 83 87 88 88 88 87 90 94 96 96 92 92 94 94 92 87 86 90
71 73 77 79 72 66 62 57 56 58 57 57 56 53 53 54 54 54 54 62 73 80 72 73 72 80 83 86 87 87 90 91 90 95 96 94 94 94 94 93 89 85 82 84
72 75 77 85 80 80 70 63 59 59 62 60 61 60 62 63 59 59 59 63 71 78 83 81 83 87 85 86 85 88 90 92 95 94 96 96 95 94 94 91 87 85 90 90
77 85 73 62 65 80 70 68 64 62 65 66 68 68 71 70 66 65 70 74 79 84 81 87 88 89 90 91 88 92 93 96 96 96 96 93 96 93 93 90 88 87 95 93
61 62 65 65 60 66 73 70 69 71 70 75 71 71 71 69 70 75 76 77 80 82 86 87 93 93 93 93 90 94 94 95 96 97 96 96 93 93 92 88 90 92 95 93
58 58 58 65 61 62 72 77 82 83 88 76 76 75 76 78 82 84 84 86 82 90 90 90 94 96 96 93 95 96 95 96 96 96 96 95 94 93 92 92 93 91 92 92
66 63 60 59 65 62 62 85 84 87 83 92 87 86 84 85 88 88 91 93 93 88 95 97 97 95 96 94 96 96 96 94 95 95 94 94 93 94 94 94 95 95 93 91
65 61 52 53 57 62 70 76 79 83 84 81 87 90 91 94 96 96 93 92 97 95 97 98 94 93 94 97 96 95 94 93 93 92 93 93 93 93 92 93 93 90 90 89
73 59 53 53 64 75 75 68 80 82 86 88 86 90 90 92 91 96 97 94 94 95 98 97 96 94 93 94 92 91 91 92 94 94 93 92 93 92 89 89 88 87 89 90
66 61 67 74 78 74 77 80 89 91 88 83 86 91 93 95 95 96 98 97 93 97 99 95 94 91 91 89 90 91 92 92 94 91 90 90 89 89 88 87 88 90 93 91
63 56 54 60 61 64 72 87 84 84 95 90 88 92 95 97 97 98 97 96 99 98 97 95 94 93 94 94 94 93 92 92 93 88 88 87 87 88 88 90 94 94 94 96
67 66 66 63 67 79 79 86 93 87 88 92 83 91 95 98 98 98 98 97 96 95 95 96 95 93 93 93 93 94 92 89 86 89 91 92 94 95 96 97 98 98 98 98